Wetterdaten: Dienstag, 03.10.2023
Datum Zeit Temp. Aussen Temp. o. S. Temp +5cm Feuchte Auss Luftdruck Regen Sonnenschein Regendauer Solar Windben Empfang
03.10.2023 00:00 18,6 C 17,8 C 13,9 C 82 % 1014,4 hPa 0,0 l/m 0 min 0 min 0 W/m 3,2 km/h (1 Bft) 100,00 %
03.10.2023 00:02 18,5 C 17,8 C 13,9 C 82 % 1014,3 hPa 0,0 l/m 0 min 0 min 0 W/m 6,4 km/h (2 Bft) 100,00 %
03.10.2023 00:04 18,5 C 17,8 C 13,9 C 82 % 1014,3 hPa 0,0 l/m 0 min 0 min 0 W/m 6,4 km/h (2 Bft) 100,00 %
03.10.2023 00:10 18,4 C 17,2 C 13,9 C 83 % 1014,2 hPa 0,0 l/m 0 min 0 min 0 W/m 12,9 km/h (3 Bft) 100,00 %
03.10.2023 00:12 18,4 C 17,2 C 13,9 C 83 % 1014,2 hPa 0,0 l/m 0 min 0 min 0 W/m 6,4 km/h (2 Bft) 100,00 %
03.10.2023 00:16 18,4 C 17,2 C 13,9 C 83 % 1014,1 hPa 0,0 l/m 0 min 0 min 0 W/m 3,2 km/h (1 Bft) 98,94 %
03.10.2023 00:18 18,4 C 17,2 C 13,9 C 83 % 1014,1 hPa 0,0 l/m 0 min 0 min 0 W/m 3,2 km/h (1 Bft) 100,00 %
03.10.2023 00:20 18,3 C 17,2 C 13,9 C 83 % 1014,0 hPa 0,0 l/m 0 min 0 min 0 W/m 3,2 km/h (1 Bft) 100,00 %
03.10.2023 00:22 18,3 C 17,2 C 13,9 C 84 % 1014,0 hPa 0,0 l/m 0 min 0 min 0 W/m 6,4 km/h (2 Bft) 100,00 %
03.10.2023 00:24 18,3 C 17,2 C 13,9 C 84 % 1014,0 hPa 0,0 l/m 0 min 0 min 0 W/m 3,2 km/h (1 Bft) 95,74 %
03.10.2023 00:26 18,3 C 17,2 C 13,9 C 84 % 1013,9 hPa 0,0 l/m 0 min 0 min 0 W/m 3,2 km/h (1 Bft) 82,98 %
03.10.2023 00:28 18,3 C 17,2 C 13,9 C 84 % 1013,9 hPa 0,0 l/m 0 min 0 min 0 W/m 6,4 km/h (2 Bft) 71,11 %
03.10.2023 00:30 18,3 C 17,2 C 13,9 C 84 % 1013,9 hPa 0,0 l/m 0 min 0 min 0 W/m 6,4 km/h (2 Bft) 97,87 %
03.10.2023 00:32 18,3 C 17,2 C 13,9 C 84 % 1013,9 hPa 0,0 l/m 0 min 0 min 0 W/m 3,2 km/h (1 Bft) 97,87 %
03.10.2023 00:34 18,2 C 17,2 C 13,9 C 84 % 1013,8 hPa 0,0 l/m 0 min 0 min 0 W/m 6,4 km/h (2 Bft) 97,87 %
03.10.2023 00:36 18,2 C 17,2 C 13,3 C 85 % 1013,8 hPa 0,0 l/m 0 min 0 min 0 W/m 3,2 km/h (1 Bft) 95,65 %
03.10.2023 00:38 18,2 C 17,2 C 13,3 C 85 % 1013,7 hPa 0,0 l/m 0 min 0 min 0 W/m 3,2 km/h (1 Bft) 95,74 %
03.10.2023 00:40 18,2 C 17,2 C 13,3 C 85 % 1013,8 hPa 0,0 l/m 0 min 0 min 0 W/m 3,2 km/h (1 Bft) 97,87 %
03.10.2023 00:42 18,2 C 17,2 C 13,3 C 85 % 1013,7 hPa 0,0 l/m 0 min 0 min 0 W/m 9,7 km/h (2 Bft) 97,87 %
03.10.2023 00:44 18,2 C 17,2 C 13,3 C 85 % 1013,6 hPa 0,0 l/m 0 min 0 min 0 W/m 3,2 km/h (1 Bft) 95,74 %
03.10.2023 00:46 18,2 C 17,2 C 13,3 C 85 % 1013,5 hPa 0,0 l/m 0 min 0 min 0 W/m 3,2 km/h (1 Bft) 95,74 %
03.10.2023 00:48 18,1 C 17,2 C 13,3 C 85 % 1013,5 hPa 0,0 l/m 0 min 0 min 0 W/m 3,2 km/h (1 Bft) 95,74 %
03.10.2023 00:50 18,1 C 17,2 C 13,3 C 86 % 1013,5 hPa 0,0 l/m 0 min 0 min 0 W/m 3,2 km/h (1 Bft) 95,65 %
03.10.2023 00:52 18,1 C 17,2 C 13,3 C 86 % 1013,4 hPa 0,0 l/m 0 min 0 min 0 W/m 6,4 km/h (2 Bft) 94,44 %
03.10.2023 00:54 18,1 C 17,2 C 13,3 C 86 % 1013,5 hPa 0,0 l/m 0 min 0 min 0 W/m 6,4 km/h (2 Bft) 95,74 %
03.10.2023 00:56 18,1 C 17,2 C 13,3 C 86 % 1013,4 hPa 0,0 l/m 0 min 0 min 0 W/m 6,4 km/h (2 Bft) 96,00 %
03.10.2023 00:58 18,1 C 17,2 C 13,3 C 86 % 1013,4 hPa 0,0 l/m 0 min 0 min 0 W/m 6,4 km/h (2 Bft) 100,00 %
03.10.2023 01:00 18,1 C 17,2 C 13,3 C 86 % 1013,4 hPa 0,0 l/m 0 min 0 min 0 W/m 3,2 km/h (1 Bft) 97,87 %
03.10.2023 01:02 18,1 C 17,2 C 13,3 C 86 % 1013,3 hPa 0,0 l/m 0 min 0 min 0 W/m 6,4 km/h (2 Bft) 97,87 %
03.10.2023 01:04 18,1 C 17,2 C 13,3 C 86 % 1013,3 hPa 0,0 l/m 0 min 0 min 0 W/m 6,4 km/h (2 Bft) 92,59 %
03.10.2023 01:08 18,1 C 17,2 C 13,9 C 87 % 1013,3 hPa 0,0 l/m 0 min 0 min 0 W/m 12,9 km/h (3 Bft) 94,74 %
03.10.2023 01:10 18,1 C 17,2 C 13,9 C 87 % 1013,3 hPa 0,0 l/m 0 min 0 min 0 W/m 12,9 km/h (3 Bft) 97,37 %
03.10.2023 01:12 18,1 C 17,2 C 13,9 C 87 % 1013,2 hPa 0,0 l/m 0 min 0 min 0 W/m 16,1 km/h (3 Bft) 93,55 %
03.10.2023 01:14 18,1 C 17,2 C 13,9 C 87 % 1013,2 hPa 0,0 l/m 0 min 0 min 0 W/m 16,1 km/h (3 Bft) 100,00 %
03.10.2023 01:16 18,1 C 17,2 C 13,9 C 87 % 1013,1 hPa 0,0 l/m 0 min 0 min 0 W/m 6,4 km/h (2 Bft) 97,83 %
03.10.2023 01:18 18,2 C 17,2 C 13,9 C 87 % 1013,1 hPa 0,0 l/m 0 min 0 min 0 W/m 9,7 km/h (2 Bft) 93,62 %
03.10.2023 01:20 18,2 C 17,2 C 13,9 C 87 % 1013,1 hPa 0,0 l/m 0 min 0 min 0 W/m 12,9 km/h (3 Bft) 97,87 %
03.10.2023 01:22 18,2 C 17,2 C 13,9 C 87 % 1013,0 hPa 0,0 l/m 0 min 0 min 0 W/m 12,9 km/h (3 Bft) 97,87 %
03.10.2023 01:24 18,2 C 17,2 C 13,9 C 87 % 1013,0 hPa 0,0 l/m 0 min 0 min 0 W/m 6,4 km/h (2 Bft) 97,87 %
03.10.2023 01:26 18,2 C 17,2 C 13,9 C 87 % 1012,9 hPa 0,0 l/m 0 min 0 min 0 W/m 12,9 km/h (3 Bft) 97,87 %
03.10.2023 01:28 18,2 C 17,2 C 13,9 C 87 % 1012,8 hPa 0,0 l/m 0 min 0 min 0 W/m 6,4 km/h (2 Bft) 97,87 %
03.10.2023 01:30 18,2 C 17,2 C 13,9 C 87 % 1012,8 hPa 0,0 l/m 0 min 0 min 0 W/m 12,9 km/h (3 Bft) 95,65 %
03.10.2023 01:32 18,2 C 17,2 C 13,9 C 87 % 1012,8 hPa 0,0 l/m 0 min 0 min 0 W/m 9,7 km/h (2 Bft) 96,00 %
03.10.2023 01:34 18,2 C 17,2 C 13,9 C 87 % 1012,8 hPa 0,0 l/m 0 min 0 min 0 W/m 12,9 km/h (3 Bft) 95,74 %
03.10.2023 01:36 18,2 C 17,2 C 13,9 C 87 % 1012,8 hPa 0,0 l/m 0 min 0 min 0 W/m 12,9 km/h (3 Bft) 97,83 %
03.10.2023 01:38 18,2 C 17,2 C 13,9 C 87 % 1012,8 hPa 0,0 l/m 0 min 0 min 0 W/m 12,9 km/h (3 Bft) 97,87 %
03.10.2023 01:40 18,3 C 17,2 C 13,9 C 87 % 1012,8 hPa 0,0 l/m 0 min 0 min 0 W/m 12,9 km/h (3 Bft) 97,87 %
03.10.2023 01:42 18,3 C 17,2 C 13,9 C 87 % 1012,8 hPa 0,0 l/m 0 min 0 min 0 W/m 6,4 km/h (2 Bft) 97,14 %
03.10.2023 01:44 18,3 C 17,2 C 13,9 C 87 % 1012,7 hPa 0,0 l/m 0 min 0 min 0 W/m 9,7 km/h (2 Bft) 97,87 %
03.10.2023 01:46 18,3 C 17,2 C 13,9 C 87 % 1012,6 hPa 0,0 l/m 0 min 0 min 0 W/m 6,4 km/h (2 Bft) 97,87 %
03.10.2023 01:48 18,3 C 17,2 C 13,9 C 87 % 1012,6 hPa 0,0 l/m 0 min 0 min 0 W/m 12,9 km/h (3 Bft) 97,87 %
03.10.2023 01:50 18,3 C 17,2 C 13,9 C 87 % 1012,6 hPa 0,0 l/m 0 min 0 min 0 W/m 9,7 km/h (2 Bft) 95,74 %
03.10.2023 01:52 18,2 C 17,2 C 13,9 C 87 % 1012,6 hPa 0,0 l/m 0 min 0 min 0 W/m 16,1 km/h (3 Bft) 97,87 %
03.10.2023 01:54 18,3 C 17,2 C 13,9 C 87 % 1012,5 hPa 0,0 l/m 0 min 0 min 0 W/m 12,9 km/h (3 Bft) 97,83 %
03.10.2023 01:56 18,3 C 17,2 C 13,9 C 87 % 1012,5 hPa 0,0 l/m 0 min 0 min 0 W/m 16,1 km/h (3 Bft) 98,11 %
03.10.2023 02:04 18,2 C 17,2 C 13,9 C 87 % 1012,4 hPa 0,0 l/m 0 min 0 min 0 W/m 12,9 km/h (3 Bft) 93,75 %
03.10.2023 02:06 18,2 C 17,2 C 13,9 C 87 % 1012,4 hPa 0,0 l/m 0 min 0 min 0 W/m 12,9 km/h (3 Bft) 100,00 %
03.10.2023 02:08 18,2 C 17,2 C 13,9 C 87 % 1012,4 hPa 0,0 l/m 0 min 0 min 0 W/m 9,7 km/h (2 Bft) 93,62 %
03.10.2023 02:10 18,2 C 17,2 C 13,9 C 87 % 1012,3 hPa 0,0 l/m 0 min 0 min 0 W/m 12,9 km/h (3 Bft) 97,87 %
03.10.2023 02:14 18,2 C 17,2 C 13,9 C 87 % 1012,3 hPa 0,0 l/m 0 min 0 min 0 W/m 6,4 km/h (2 Bft) 100,00 %
03.10.2023 02:16 18,3 C 17,2 C 13,9 C 87 % 1012,2 hPa 0,0 l/m 0 min 0 min 0 W/m 12,9 km/h (3 Bft) 100,00 %
03.10.2023 02:18 18,2 C 17,2 C 13,9 C 87 % 1012,2 hPa 0,0 l/m 0 min 0 min 0 W/m 12,9 km/h (3 Bft) 97,87 %
03.10.2023 02:20 18,2 C 17,2 C 13,9 C 87 % 1012,1 hPa 0,0 l/m 0 min 0 min 0 W/m 16,1 km/h (3 Bft) 100,00 %
03.10.2023 02:22 18,2 C 17,2 C 13,9 C 87 % 1012,1 hPa 0,0 l/m 0 min 0 min 0 W/m 6,4 km/h (2 Bft) 100,00 %
03.10.2023 02:24 18,2 C 17,2 C 13,9 C 87 % 1012,1 hPa 0,0 l/m 0 min 0 min 0 W/m 12,9 km/h (3 Bft) 100,00 %
03.10.2023 02:26 18,2 C 17,2 C 13,9 C 87 % 1012,1 hPa 0,0 l/m 0 min 0 min 0 W/m 12,9 km/h (3 Bft) 100,00 %
03.10.2023 02:28 18,2 C 17,2 C 13,9 C 87 % 1012,1 hPa 0,0 l/m 0 min 0 min 0 W/m 12,9 km/h (3 Bft) 97,87 %
03.10.2023 02:30 18,2 C 17,2 C 13,9 C 87 % 1012,0 hPa 0,0 l/m 0 min 0 min 0 W/m 12,9 km/h (3 Bft) 97,87 %
03.10.2023 02:32 18,2 C 17,2 C 13,9 C 87 % 1012,0 hPa 0,0 l/m 0 min 0 min 0 W/m 6,4 km/h (2 Bft) 100,00 %
03.10.2023 02:34 18,2 C 17,2 C 13,9 C 87 % 1012,0 hPa 0,0 l/m 0 min 0 min 0 W/m 6,4 km/h (2 Bft) 97,87 %
03.10.2023 02:36 18,2 C 17,2 C 13,9 C 87 % 1011,9 hPa 0,0 l/m 0 min 0 min 0 W/m 6,4 km/h (2 Bft) 98,00 %
03.10.2023 02:38 18,2 C 17,2 C 13,9 C 87 % 1011,9 hPa 0,0 l/m 0 min 0 min 0 W/m 16,1 km/h (3 Bft) 97,87 %
03.10.2023 02:40 18,2 C 17,2 C 13,9 C 87 % 1011,9 hPa 0,0 l/m 0 min 0 min 0 W/m 6,4 km/h (2 Bft) 97,87 %
03.10.2023 02:42 18,2 C 17,2 C 13,9 C 87 % 1011,8 hPa 0,0 l/m 0 min 0 min 0 W/m 9,7 km/h (2 Bft) 97,87 %
03.10.2023 02:44 18,2 C 17,2 C 13,9 C 87 % 1011,9 hPa 0,0 l/m 0 min 0 min 0 W/m 12,9 km/h (3 Bft) 97,83 %
03.10.2023 02:46 18,2 C 17,2 C 13,9 C 87 % 1011,8 hPa 0,0 l/m 0 min 0 min 0 W/m 12,9 km/h (3 Bft) 93,62 %
03.10.2023 02:48 18,2 C 17,2 C 13,9 C 87 % 1011,9 hPa 0,0 l/m 0 min 0 min 0 W/m 6,4 km/h (2 Bft) 97,87 %
03.10.2023 02:50 18,2 C 17,2 C 13,9 C 87 % 1011,9 hPa 0,0 l/m 0 min 0 min 0 W/m 12,9 km/h (3 Bft) 97,87 %
03.10.2023 02:52 18,2 C 17,2 C 13,9 C 87 % 1011,9 hPa 0,0 l/m 0 min 0 min 0 W/m 6,4 km/h (2 Bft) 95,74 %
03.10.2023 02:54 18,2 C 17,2 C 13,9 C 87 % 1011,7 hPa 0,0 l/m 0 min 0 min 0 W/m 6,4 km/h (2 Bft) 95,65 %
03.10.2023 02:56 18,2 C 17,2 C 13,9 C 87 % 1011,6 hPa 0,0 l/m 0 min 0 min 0 W/m 6,4 km/h (2 Bft) 95,74 %
03.10.2023 02:58 18,2 C 17,2 C 13,9 C 87 % 1011,5 hPa 0,0 l/m 0 min 0 min 0 W/m 6,4 km/h (2 Bft) 95,74 %
03.10.2023 03:00 18,2 C 17,2 C 13,9 C 87 % 1011,5 hPa 0,0 l/m 0 min 0 min 0 W/m 6,4 km/h (2 Bft) 95,74 %
03.10.2023 03:02 18,2 C 17,2 C 13,9 C 87 % 1011,5 hPa 0,0 l/m 0 min 0 min 0 W/m 6,4 km/h (2 Bft) 97,87 %
03.10.2023 03:04 18,2 C 17,2 C 13,9 C 87 % 1011,5 hPa 0,0 l/m 0 min 0 min 0 W/m 6,4 km/h (2 Bft) 97,96 %
03.10.2023 03:06 18,2 C 17,2 C 13,9 C 87 % 1011,4 hPa 0,0 l/m 0 min 0 min 0 W/m 6,4 km/h (2 Bft) 95,74 %
03.10.2023 03:08 18,1 C 17,2 C 13,9 C 87 % 1011,5 hPa 0,0 l/m 0 min 0 min 0 W/m 6,4 km/h (2 Bft) 97,87 %
03.10.2023 03:10 18,1 C 17,2 C 13,9 C 87 % 1011,4 hPa 0,0 l/m 0 min 0 min 0 W/m 6,4 km/h (2 Bft) 97,87 %
03.10.2023 03:12 18,1 C 17,2 C 13,9 C 87 % 1011,4 hPa 0,0 l/m 0 min 0 min 0 W/m 12,9 km/h (3 Bft) 97,87 %
03.10.2023 03:14 18,1 C 17,2 C 13,9 C 87 % 1011,4 hPa 0,0 l/m 0 min 0 min 0 W/m 12,9 km/h (3 Bft) 97,83 %
03.10.2023 03:16 18,1 C 17,2 C 13,9 C 87 % 1011,4 hPa 0,0 l/m 0 min 0 min 0 W/m 6,4 km/h (2 Bft) 93,62 %
03.10.2023 03:18 18,1 C 17,2 C 13,9 C 87 % 1011,3 hPa 0,0 l/m 0 min 0 min 0 W/m 16,1 km/h (3 Bft) 97,87 %
03.10.2023 03:20 18,1 C 17,2 C 13,9 C 87 % 1011,3 hPa 0,0 l/m 0 min 0 min 0 W/m 3,2 km/h (1 Bft) 97,87 %
03.10.2023 03:22 18,1 C 17,2 C 13,9 C 87 % 1011,3 hPa 0,0 l/m 0 min 0 min 0 W/m 3,2 km/h (1 Bft) 97,87 %
03.10.2023 03:24 18,1 C 17,2 C 13,9 C 87 % 1011,3 hPa 0,0 l/m 0 min 0 min 0 W/m 12,9 km/h (3 Bft) 97,87 %
03.10.2023 03:26 18,1 C 17,2 C 13,9 C 87 % 1011,2 hPa 0,0 l/m 0 min 0 min 0 W/m 6,4 km/h (2 Bft) 97,87 %
03.10.2023 03:28 18,1 C 17,2 C 13,9 C 87 % 1011,2 hPa 0,0 l/m 0 min 0 min 0 W/m 6,4 km/h (2 Bft) 97,83 %
03.10.2023 03:30 18,1 C 17,2 C 13,9 C 87 % 1011,1 hPa 0,0 l/m 0 min 0 min 0 W/m 9,7 km/h (2 Bft) 97,87 %
03.10.2023 03:32 18,1 C 17,2 C 13,9 C 87 % 1011,1 hPa 0,0 l/m 0 min 0 min 0 W/m 6,4 km/h (2 Bft) 93,62 %
03.10.2023 03:34 18,1 C 17,2 C 13,9 C 87 % 1011,0 hPa 0,0 l/m 0 min 0 min 0 W/m 6,4 km/h (2 Bft) 97,87 %
03.10.2023 03:36 18,1 C 17,2 C 13,9 C 87 % 1011,0 hPa 0,0 l/m 0 min 0 min 0 W/m 6,4 km/h (2 Bft) 97,87 %
03.10.2023 03:38 18,1 C 17,2 C 13,9 C 87 % 1010,9 hPa 0,0 l/m 0 min 0 min 0 W/m 12,9 km/h (3 Bft) 97,87 %
03.10.2023 03:40 18,1 C 17,2 C 13,9 C 87 % 1010,8 hPa 0,0 l/m 0 min 0 min 0 W/m 6,4 km/h (2 Bft) 95,74 %
03.10.2023 03:42 18,1 C 17,2 C 13,9 C 87 % 1010,8 hPa 0,0 l/m 0 min 0 min 0 W/m 19,3 km/h (3 Bft) 95,65 %
03.10.2023 03:44 18,1 C 17,2 C 13,9 C 87 % 1010,8 hPa 0,0 l/m 0 min 0 min 0 W/m 6,4 km/h (2 Bft) 97,87 %
03.10.2023 03:46 18,1 C 17,2 C 13,9 C 87 % 1010,8 hPa 0,0 l/m 0 min 0 min 0 W/m 12,9 km/h (3 Bft) 95,74 %
03.10.2023 03:48 18,1 C 17,2 C 13,9 C 87 % 1010,6 hPa 0,0 l/m 0 min 0 min 0 W/m 6,4 km/h (2 Bft) 97,87 %
03.10.2023 03:50 18,1 C 17,2 C 13,9 C 87 % 1010,6 hPa 0,0 l/m 0 min 0 min 0 W/m 6,4 km/h (2 Bft) 97,87 %
03.10.2023 03:52 18,1 C 17,2 C 13,9 C 87 % 1010,5 hPa 0,0 l/m 0 min 0 min 0 W/m 12,9 km/h (3 Bft) 97,87 %
03.10.2023 03:54 18,1 C 17,2 C 13,9 C 87 % 1010,5 hPa 0,0 l/m 0 min 0 min 0 W/m 6,4 km/h (2 Bft) 97,50 %
03.10.2023 03:56 18,1 C 17,2 C 13,9 C 87 % 1010,4 hPa 0,0 l/m 0 min 0 min 0 W/m 6,4 km/h (2 Bft) 97,87 %
03.10.2023 03:58 18,1 C 17,2 C 13,9 C 87 % 1010,4 hPa 0,0 l/m 0 min 0 min 0 W/m 6,4 km/h (2 Bft) 97,87 %
03.10.2023 04:00 18,1 C 17,2 C 13,9 C 87 % 1010,4 hPa 0,0 l/m 0 min 0 min 0 W/m 6,4 km/h (2 Bft) 100,00 %
03.10.2023 04:02 18,1 C 17,2 C 13,9 C 87 % 1010,3 hPa 0,0 l/m 0 min 0 min 0 W/m 6,4 km/h (2 Bft) 100,00 %
03.10.2023 04:04 18,1 C 17,2 C 13,9 C 87 % 1010,3 hPa 0,0 l/m 0 min 0 min 0 W/m 6,4 km/h (2 Bft) 97,78 %
03.10.2023 04:08 18,1 C 17,2 C 13,9 C 87 % 1010,2 hPa 0,0 l/m 0 min 0 min 0 W/m 12,9 km/h (3 Bft) 97,09 %
03.10.2023 04:09 18,1 C 17,2 C 13,9 C 87 % 1010,2 hPa 0,0 l/m 0 min 0 min 0 W/m 6,4 km/h (2 Bft) 100,00 %
03.10.2023 04:10 18,1 C 17,2 C 13,9 C 87 % 1010,2 hPa 0,0 l/m 0 min 0 min 0 W/m 6,4 km/h (2 Bft) 100,00 %
03.10.2023 04:14 18,1 C 17,2 C 13,9 C 87 % 1010,2 hPa 0,0 l/m 0 min 0 min 0 W/m 9,7 km/h (2 Bft) 97,87 %
03.10.2023 04:16 18,1 C 17,2 C 13,9 C 87 % 1010,2 hPa 0,0 l/m 0 min 0 min 0 W/m 6,4 km/h (2 Bft) 97,87 %
03.10.2023 04:18 18,1 C 17,2 C 13,9 C 87 % 1010,1 hPa 0,0 l/m 0 min 0 min 0 W/m 12,9 km/h (3 Bft) 97,87 %
03.10.2023 04:20 18,1 C 17,2 C 13,9 C 87 % 1010,1 hPa 0,0 l/m 0 min 0 min 0 W/m 6,4 km/h (2 Bft) 97,83 %
03.10.2023 04:22 18,2 C 17,2 C 13,9 C 87 % 1010,0 hPa 0,0 l/m 0 min 0 min 0 W/m 9,7 km/h (2 Bft) 93,62 %
03.10.2023 04:24 18,2 C 17,2 C 13,9 C 87 % 1010,1 hPa 0,0 l/m 0 min 0 min 0 W/m 6,4 km/h (2 Bft) 95,74 %
03.10.2023 04:26 18,2 C 17,2 C 13,9 C 87 % 1009,9 hPa 0,0 l/m 0 min 0 min 0 W/m 9,7 km/h (2 Bft) 97,87 %
03.10.2023 04:28 18,2 C 17,2 C 13,9 C 87 % 1010,2 hPa 0,0 l/m 0 min 0 min 0 W/m 16,1 km/h (3 Bft) 97,87 %
03.10.2023 04:30 18,2 C 17,2 C 13,9 C 87 % 1010,0 hPa 0,0 l/m 0 min 0 min 0 W/m 6,4 km/h (2 Bft) 95,74 %
03.10.2023 04:32 18,2 C 17,2 C 13,9 C 87 % 1009,9 hPa 0,0 l/m 0 min 0 min 0 W/m 16,1 km/h (3 Bft) 95,74 %
03.10.2023 04:34 18,2 C 17,8 C 13,9 C 87 % 1009,9 hPa 0,0 l/m 0 min 0 min 0 W/m 16,1 km/h (3 Bft) 95,65 %
03.10.2023 04:36 18,2 C 17,8 C 13,9 C 87 % 1009,8 hPa 0,0 l/m 0 min 0 min 0 W/m 12,9 km/h (3 Bft) 95,74 %
03.10.2023 04:38 18,2 C 17,8 C 13,9 C 87 % 1009,7 hPa 0,0 l/m 0 min 0 min 0 W/m 12,9 km/h (3 Bft) 95,74 %
03.10.2023 04:40 18,3 C 17,8 C 13,9 C 87 % 1009,7 hPa 0,0 l/m 0 min 0 min 0 W/m 6,4 km/h (2 Bft) 95,74 %
03.10.2023 04:42 18,3 C 17,8 C 13,9 C 87 % 1009,7 hPa 0,0 l/m 0 min 0 min 0 W/m 16,1 km/h (3 Bft) 93,62 %
03.10.2023 04:44 18,3 C 17,8 C 13,9 C 87 % 1009,8 hPa 0,0 l/m 0 min 0 min 0 W/m 6,4 km/h (2 Bft) 95,74 %
03.10.2023 04:46 18,3 C 17,8 C 13,9 C 87 % 1009,7 hPa 0,0 l/m 0 min 0 min 0 W/m 12,9 km/h (3 Bft) 95,74 %
03.10.2023 04:48 18,3 C 17,8 C 13,9 C 87 % 1009,8 hPa 0,0 l/m 0 min 0 min 0 W/m 6,4 km/h (2 Bft) 95,74 %
03.10.2023 04:50 18,3 C 17,8 C 13,9 C 87 % 1009,8 hPa 0,0 l/m 0 min 0 min 0 W/m 12,9 km/h (3 Bft) 95,65 %
03.10.2023 04:52 18,3 C 17,8 C 13,9 C 87 % 1009,9 hPa 0,0 l/m 0 min 0 min 0 W/m 6,4 km/h (2 Bft) 91,49 %
03.10.2023 04:54 18,3 C 17,8 C 13,9 C 87 % 1009,8 hPa 0,0 l/m 0 min 0 min 0 W/m 16,1 km/h (3 Bft) 97,87 %
03.10.2023 04:56 18,3 C 17,8 C 13,9 C 87 % 1009,8 hPa 0,0 l/m 0 min 0 min 0 W/m 6,4 km/h (2 Bft) 98,11 %
03.10.2023 04:58 18,3 C 17,8 C 13,9 C 87 % 1009,7 hPa 0,0 l/m 0 min 0 min 0 W/m 12,9 km/h (3 Bft) 95,74 %
03.10.2023 05:00 18,3 C 17,8 C 13,9 C 87 % 1009,8 hPa 0,0 l/m 0 min 0 min 0 W/m 16,1 km/h (3 Bft) 100,00 %
03.10.2023 05:02 18,3 C 17,8 C 13,9 C 87 % 1009,8 hPa 0,0 l/m 0 min 0 min 0 W/m 12,9 km/h (3 Bft) 100,00 %
03.10.2023 05:04 18,3 C 17,8 C 13,9 C 86 % 1009,9 hPa 0,0 l/m 0 min 0 min 0 W/m 12,9 km/h (3 Bft) 100,00 %
03.10.2023 05:08 18,3 C 17,8 C 13,9 C 86 % 1009,7 hPa 0,0 l/m 0 min 0 min 0 W/m 6,4 km/h (2 Bft) 97,85 %
03.10.2023 05:10 18,3 C 17,8 C 13,9 C 86 % 1009,7 hPa 0,0 l/m 0 min 0 min 0 W/m 9,7 km/h (2 Bft) 97,87 %
03.10.2023 05:12 18,4 C 17,8 C 13,9 C 86 % 1009,7 hPa 0,0 l/m 0 min 0 min 0 W/m 6,4 km/h (2 Bft) 100,00 %
03.10.2023 05:14 18,4 C 17,8 C 13,9 C 86 % 1009,6 hPa 0,0 l/m 0 min 0 min 0 W/m 6,4 km/h (2 Bft) 100,00 %
03.10.2023 05:16 18,4 C 17,2 C 13,9 C 86 % 1009,7 hPa 0,0 l/m 0 min 0 min 0 W/m 6,4 km/h (2 Bft) 100,00 %
03.10.2023 05:18 18,3 C 17,2 C 13,9 C 86 % 1009,6 hPa 0,0 l/m 0 min 0 min 0 W/m 6,4 km/h (2 Bft) 100,00 %
03.10.2023 05:20 18,3 C 17,2 C 13,9 C 86 % 1009,7 hPa 0,0 l/m 0 min 0 min 0 W/m 12,9 km/h (3 Bft) 100,00 %
03.10.2023 05:22 18,3 C 17,2 C 13,9 C 86 % 1009,5 hPa 0,0 l/m 0 min 0 min 0 W/m 6,4 km/h (2 Bft) 97,83 %
03.10.2023 05:24 18,3 C 17,2 C 13,9 C 86 % 1009,5 hPa 0,0 l/m 0 min 0 min 0 W/m 12,9 km/h (3 Bft) 100,00 %
03.10.2023 05:26 18,3 C 17,2 C 13,9 C 87 % 1009,6 hPa 0,0 l/m 0 min 0 min 0 W/m 6,4 km/h (2 Bft) 97,87 %
03.10.2023 05:28 18,3 C 17,2 C 13,9 C 87 % 1009,6 hPa 0,0 l/m 0 min 0 min 0 W/m 6,4 km/h (2 Bft) 97,87 %
03.10.2023 05:30 18,3 C 17,2 C 13,9 C 87 % 1009,7 hPa 0,0 l/m 0 min 0 min 0 W/m 3,2 km/h (1 Bft) 100,00 %
03.10.2023 05:32 18,3 C 17,2 C 13,9 C 87 % 1009,8 hPa 0,0 l/m 0 min 0 min 0 W/m 3,2 km/h (1 Bft) 97,87 %
03.10.2023 05:34 18,3 C 17,2 C 13,9 C 87 % 1009,8 hPa 0,0 l/m 0 min 0 min 0 W/m 6,4 km/h (2 Bft) 100,00 %
03.10.2023 05:36 18,3 C 17,2 C 13,9 C 87 % 1009,9 hPa 0,0 l/m 0 min 0 min 0 W/m 6,4 km/h (2 Bft) 100,00 %
03.10.2023 05:38 18,3 C 17,2 C 13,9 C 87 % 1009,8 hPa 0,0 l/m 0 min 0 min 0 W/m 3,2 km/h (1 Bft) 100,00 %
03.10.2023 05:40 18,2 C 17,2 C 13,9 C 87 % 1009,8 hPa 0,0 l/m 0 min 0 min 0 W/m 6,4 km/h (2 Bft) 100,00 %
03.10.2023 05:42 18,2 C 17,2 C 13,9 C 87 % 1009,8 hPa 0,0 l/m 0 min 0 min 0 W/m 3,2 km/h (1 Bft) 97,87 %
03.10.2023 05:44 18,2 C 17,2 C 13,3 C 87 % 1009,9 hPa 0,0 l/m 0 min 0 min 0 W/m 3,2 km/h (1 Bft) 100,00 %
03.10.2023 05:46 18,2 C 17,2 C 13,3 C 87 % 1009,8 hPa 0,0 l/m 0 min 0 min 0 W/m 3,2 km/h (1 Bft) 95,74 %
03.10.2023 05:48 18,2 C 17,2 C 13,3 C 87 % 1009,9 hPa 0,0 l/m 0 min 0 min 0 W/m 3,2 km/h (1 Bft) 100,00 %
03.10.2023 05:50 18,2 C 17,2 C 13,3 C 87 % 1009,9 hPa 0,0 l/m 0 min 0 min 0 W/m 3,2 km/h (1 Bft) 95,74 %
03.10.2023 05:52 18,2 C 17,2 C 13,3 C 87 % 1009,8 hPa 0,0 l/m 0 min 0 min 0 W/m 3,2 km/h (1 Bft) 97,83 %
03.10.2023 05:54 18,2 C 17,2 C 13,3 C 87 % 1009,9 hPa 0,0 l/m 0 min 0 min 0 W/m 3,2 km/h (1 Bft) 100,00 %
03.10.2023 05:56 18,2 C 17,2 C 13,3 C 87 % 1010,0 hPa 0,0 l/m 0 min 0 min 0 W/m 3,2 km/h (1 Bft) 97,56 %
03.10.2023 05:58 18,2 C 17,2 C 13,3 C 87 % 1009,9 hPa 0,0 l/m 0 min 0 min 0 W/m 3,2 km/h (1 Bft) 100,00 %
03.10.2023 06:00 18,2 C 17,2 C 13,3 C 87 % 1009,9 hPa 0,0 l/m 0 min 0 min 0 W/m 6,4 km/h (2 Bft) 97,87 %
03.10.2023 06:02 18,1 C 17,2 C 13,3 C 87 % 1009,9 hPa 0,0 l/m 0 min 0 min 0 W/m 3,2 km/h (1 Bft) 96,23 %
03.10.2023 06:04 18,1 C 17,2 C 13,3 C 87 % 1009,9 hPa 0,0 l/m 0 min 0 min 0 W/m 3,2 km/h (1 Bft) 95,92 %
03.10.2023 06:08 18,1 C 17,2 C 13,3 C 87 % 1010,0 hPa 0,0 l/m 0 min 0 min 0 W/m 3,2 km/h (1 Bft) 97,67 %
03.10.2023 06:10 18,1 C 17,2 C 13,3 C 87 % 1010,0 hPa 0,0 l/m 0 min 0 min 0 W/m 3,2 km/h (1 Bft) 97,87 %
03.10.2023 06:12 18,1 C 17,2 C 13,3 C 87 % 1009,9 hPa 0,0 l/m 0 min 0 min 0 W/m 3,2 km/h (1 Bft) 97,87 %
03.10.2023 06:16 18,1 C 17,2 C 13,3 C 87 % 1009,9 hPa 0,0 l/m 0 min 0 min 0 W/m 6,4 km/h (2 Bft) 96,81 %
03.10.2023 06:18 18,1 C 17,2 C 13,3 C 88 % 1010,0 hPa 0,0 l/m 0 min 0 min 0 W/m 6,4 km/h (2 Bft) 97,87 %
03.10.2023 06:20 18,1 C 17,2 C 13,3 C 88 % 1010,0 hPa 0,0 l/m 0 min 0 min 0 W/m 6,4 km/h (2 Bft) 97,87 %
03.10.2023 06:22 18,1 C 17,2 C 13,3 C 88 % 1009,9 hPa 0,0 l/m 0 min 0 min 0 W/m 6,4 km/h (2 Bft) 95,65 %
03.10.2023 06:24 18,1 C 17,2 C 13,3 C 88 % 1010,0 hPa 0,0 l/m 0 min 0 min 0 W/m 6,4 km/h (2 Bft) 95,74 %
03.10.2023 06:26 18,1 C 17,8 C 13,9 C 88 % 1009,9 hPa 0,0 l/m 0 min 0 min 0 W/m 6,4 km/h (2 Bft) 95,74 %
03.10.2023 06:28 18,2 C 17,8 C 13,9 C 88 % 1009,8 hPa 0,0 l/m 0 min 0 min 0 W/m 6,4 km/h (2 Bft) 95,74 %
03.10.2023 06:30 18,3 C 18,3 C 13,9 C 88 % 1009,9 hPa 0,0 l/m 0 min 0 min 0 W/m 12,9 km/h (3 Bft) 93,62 %
03.10.2023 06:32 18,5 C 18,3 C 14,4 C 87 % 1009,9 hPa 0,0 l/m 0 min 0 min 0 W/m 12,9 km/h (3 Bft) 95,74 %
03.10.2023 06:34 18,6 C 18,9 C 14,4 C 87 % 1009,9 hPa 0,0 l/m 0 min 0 min 0 W/m 12,9 km/h (3 Bft) 95,74 %
03.10.2023 06:36 18,8 C 18,9 C 14,4 C 86 % 1009,9 hPa 0,0 l/m 0 min 0 min 0 W/m 19,3 km/h (3 Bft) 95,65 %
03.10.2023 06:38 19,0 C 18,9 C 15,0 C 86 % 1009,8 hPa 0,0 l/m 0 min 0 min 0 W/m 19,3 km/h (3 Bft) 93,62 %
03.10.2023 06:40 19,2 C 18,9 C 15,0 C 86 % 1009,8 hPa 0,0 l/m 0 min 0 min 0 W/m 22,5 km/h (4 Bft) 93,62 %
03.10.2023 06:42 19,5 C 19,4 C 15,0 C 85 % 1009,9 hPa 0,0 l/m 0 min 0 min 0 W/m 16,1 km/h (3 Bft) 93,88 %
03.10.2023 06:44 19,7 C 19,4 C 15,0 C 84 % 1009,9 hPa 0,0 l/m 0 min 0 min 0 W/m 12,9 km/h (3 Bft) 95,74 %
03.10.2023 06:46 19,9 C 19,4 C 15,6 C 84 % 1010,1 hPa 0,0 l/m 0 min 0 min 0 W/m 25,7 km/h (4 Bft) 95,74 %
03.10.2023 06:48 20,1 C 19,4 C 15,6 C 82 % 1010,0 hPa 0,0 l/m 0 min 0 min 0 W/m 16,1 km/h (3 Bft) 95,74 %
03.10.2023 06:50 20,2 C 19,4 C 15,6 C 82 % 1010,0 hPa 0,0 l/m 0 min 0 min 0 W/m 12,9 km/h (3 Bft) 95,74 %
03.10.2023 06:52 20,3 C 19,4 C 15,6 C 82 % 1010,0 hPa 0,0 l/m 0 min 0 min 0 W/m 6,4 km/h (2 Bft) 97,87 %
03.10.2023 06:54 20,3 C 19,4 C 15,6 C 81 % 1010,0 hPa 0,0 l/m 0 min 0 min 0 W/m 9,7 km/h (2 Bft) 95,83 %
03.10.2023 06:56 20,3 C 19,4 C 15,6 C 81 % 1009,9 hPa 0,0 l/m 0 min 0 min 0 W/m 12,9 km/h (3 Bft) 95,74 %
03.10.2023 06:58 20,3 C 19,4 C 15,6 C 81 % 1009,9 hPa 0,0 l/m 0 min 0 min 0 W/m 16,1 km/h (3 Bft) 95,74 %
03.10.2023 07:00 20,4 C 19,4 C 15,6 C 81 % 1009,9 hPa 0,0 l/m 0 min 0 min 0 W/m 12,9 km/h (3 Bft) 97,87 %
03.10.2023 07:02 20,4 C 19,4 C 15,6 C 81 % 1009,9 hPa 0,0 l/m 0 min 0 min 0 W/m 16,1 km/h (3 Bft) 95,74 %
03.10.2023 07:04 20,4 C 19,4 C 15,6 C 81 % 1009,9 hPa 0,0 l/m 0 min 0 min 0 W/m 16,1 km/h (3 Bft) 97,73 %
03.10.2023 07:06 20,4 C 19,4 C 15,6 C 81 % 1009,9 hPa 0,0 l/m 0 min 0 min 0 W/m 22,5 km/h (4 Bft) 97,87 %
03.10.2023 07:08 20,4 C 19,4 C 15,6 C 81 % 1010,0 hPa 0,0 l/m 0 min 0 min 0 W/m 16,1 km/h (3 Bft) 97,87 %
03.10.2023 07:10 20,4 C 19,4 C 15,6 C 81 % 1010,0 hPa 0,0 l/m 0 min 0 min 0 W/m 16,1 km/h (3 Bft) 98,00 %
03.10.2023 07:12 20,4 C 19,4 C 15,6 C 81 % 1009,9 hPa 0,0 l/m 0 min 0 min 0 W/m 12,9 km/h (3 Bft) 97,83 %
03.10.2023 07:14 20,4 C 19,4 C 15,6 C 81 % 1010,0 hPa 0,0 l/m 0 min 0 min 0 W/m 12,9 km/h (3 Bft) 97,56 %
03.10.2023 07:16 20,4 C 19,4 C 15,6 C 81 % 1010,0 hPa 0,0 l/m 0 min 0 min 0 W/m 16,1 km/h (3 Bft) 97,87 %
03.10.2023 07:18 20,4 C 19,4 C 15,6 C 81 % 1009,9 hPa 0,0 l/m 0 min 0 min 0 W/m 12,9 km/h (3 Bft) 95,74 %
03.10.2023 07:20 20,4 C 19,4 C 15,6 C 81 % 1010,1 hPa 0,0 l/m 0 min 0 min 0 W/m 12,9 km/h (3 Bft) 95,74 %
03.10.2023 07:22 20,4 C 19,4 C 15,6 C 81 % 1010,1 hPa 0,0 l/m 0 min 0 min 0 W/m 12,9 km/h (3 Bft) 97,87 %
03.10.2023 07:24 20,4 C 19,4 C 15,6 C 81 % 1010,0 hPa 0,0 l/m 0 min 0 min 0 W/m 12,9 km/h (3 Bft) 97,87 %
03.10.2023 07:26 20,4 C 19,4 C 15,6 C 81 % 1010,1 hPa 0,0 l/m 0 min 0 min 0 W/m 12,9 km/h (3 Bft) 78,72 %
03.10.2023 07:28 20,4 C 19,4 C 15,6 C 82 % 1010,1 hPa 0,0 l/m 0 min 0 min 0 W/m 6,4 km/h (2 Bft) 62,07 %
03.10.2023 07:30 20,3 C 19,4 C 15,6 C 82 % 1010,2 hPa 0,0 l/m 0 min 0 min 0 W/m 19,3 km/h (3 Bft) 97,87 %
03.10.2023 07:32 20,3 C 19,4 C 15,6 C 82 % 1010,4 hPa 0,0 l/m 0 min 0 min 0 W/m 16,1 km/h (3 Bft) 97,87 %
03.10.2023 07:34 20,3 C 19,4 C 15,6 C 82 % 1010,5 hPa 0,0 l/m 0 min 0 min 0 W/m 19,3 km/h (3 Bft) 93,62 %
03.10.2023 07:36 20,3 C 19,4 C 15,6 C 82 % 1010,4 hPa 0,0 l/m 0 min 0 min 0 W/m 19,3 km/h (3 Bft) 97,87 %
03.10.2023 07:38 20,3 C 19,4 C 15,6 C 82 % 1010,2 hPa 0,0 l/m 0 min 0 min 0 W/m 19,3 km/h (3 Bft) 100,00 %
03.10.2023 07:40 20,3 C 19,4 C 15,6 C 82 % 1010,3 hPa 0,0 l/m 0 min 0 min 0 W/m 19,3 km/h (3 Bft) 100,00 %
03.10.2023 07:46 20,3 C 19,4 C 15,6 C 83 % 1010,4 hPa 0,0 l/m 0 min 0 min 3 W/m 22,5 km/h (4 Bft) 98,45 %
03.10.2023 07:48 20,3 C 19,4 C 15,6 C 83 % 1010,5 hPa 0,0 l/m 0 min 0 min 5 W/m 16,1 km/h (3 Bft) 100,00 %
03.10.2023 07:50 20,3 C 19,4 C 15,6 C 83 % 1010,6 hPa 0,0 l/m 0 min 0 min 5 W/m 19,3 km/h (3 Bft) 97,87 %
03.10.2023 07:52 20,3 C 19,4 C 15,6 C 83 % 1010,6 hPa 0,0 l/m 0 min 0 min 7 W/m 12,9 km/h (3 Bft) 97,87 %
03.10.2023 07:54 20,2 C 18,9 C 15,6 C 83 % 1010,6 hPa 0,0 l/m 0 min 0 min 7 W/m 22,5 km/h (4 Bft) 100,00 %
03.10.2023 07:56 20,2 C 18,9 C 15,6 C 83 % 1010,7 hPa 0,0 l/m 0 min 0 min 7 W/m 12,9 km/h (3 Bft) 100,00 %
03.10.2023 07:58 20,2 C 18,9 C 15,0 C 83 % 1010,9 hPa 0,0 l/m 0 min 0 min 7 W/m 19,3 km/h (3 Bft) 100,00 %
03.10.2023 08:00 20,2 C 18,9 C 15,0 C 83 % 1010,7 hPa 0,0 l/m 0 min 0 min 7 W/m 16,1 km/h (3 Bft) 100,00 %
03.10.2023 08:02 20,2 C 18,9 C 15,0 C 83 % 1010,8 hPa 0,0 l/m 0 min 0 min 6 W/m 16,1 km/h (3 Bft) 97,87 %
03.10.2023 08:04 20,2 C 18,9 C 15,0 C 84 % 1010,8 hPa 0,0 l/m 0 min 0 min 5 W/m 29,0 km/h (5 Bft) 100,00 %
03.10.2023 08:10 20,1 C 18,9 C 15,0 C 84 % 1011,2 hPa 0,0 l/m 0 min 0 min 6 W/m 19,3 km/h (3 Bft) 98,52 %
03.10.2023 08:12 20,1 C 18,9 C 15,0 C 84 % 1010,6 hPa 0,0 l/m 0 min 0 min 10 W/m 22,5 km/h (4 Bft) 97,87 %
03.10.2023 08:15 20,1 C 18,9 C 15,6 C 84 % 1011,1 hPa 0,0 l/m 0 min 0 min 8 W/m 22,5 km/h (4 Bft) 100,00 %
03.10.2023 08:20 20,1 C 18,9 C 15,6 C 83 % 1011,1 hPa 0,0 l/m 0 min 0 min 5 W/m 25,7 km/h (4 Bft) 100,00 %
03.10.2023 08:25 20,1 C 18,9 C 15,0 C 83 % 1011,1 hPa 0,0 l/m 0 min 0 min 8 W/m 19,3 km/h (3 Bft) 100,00 %
03.10.2023 08:30 20,0 C 18,9 C 15,0 C 83 % 1011,0 hPa 0,0 l/m 0 min 0 min 11 W/m 29,0 km/h (5 Bft) 100,00 %
03.10.2023 08:34 20,0 C 18,9 C 15,0 C 83 % 1011,1 hPa 0,0 l/m 0 min 0 min 16 W/m 16,1 km/h (3 Bft) 98,06 %
03.10.2023 08:36 20,0 C 18,9 C 15,0 C 83 % 1011,2 hPa 0,0 l/m 0 min 0 min 16 W/m 19,3 km/h (3 Bft) 97,83 %
03.10.2023 08:38 19,9 C 18,9 C 15,0 C 83 % 1011,3 hPa 0,0 l/m 0 min 0 min 13 W/m 22,5 km/h (4 Bft) 97,87 %
03.10.2023 08:40 19,9 C 18,9 C 15,0 C 83 % 1011,4 hPa 0,0 l/m 0 min 0 min 11 W/m 22,5 km/h (4 Bft) 97,87 %
03.10.2023 08:42 19,9 C 18,9 C 15,0 C 83 % 1011,4 hPa 0,0 l/m 0 min 0 min 11 W/m 25,7 km/h (4 Bft) 93,62 %
03.10.2023 08:44 19,9 C 18,9 C 15,0 C 83 % 1011,6 hPa 0,0 l/m 0 min 0 min 9 W/m 22,5 km/h (4 Bft) 97,87 %
03.10.2023 08:46 19,9 C 18,9 C 15,0 C 83 % 1011,6 hPa 0,0 l/m 0 min 0 min 7 W/m 25,7 km/h (4 Bft) 97,87 %
03.10.2023 08:48 19,9 C 18,9 C 15,0 C 83 % 1011,8 hPa 0,0 l/m 0 min 0 min 9 W/m 22,5 km/h (4 Bft) 97,87 %
03.10.2023 08:50 19,8 C 18,9 C 15,0 C 83 % 1011,7 hPa 0,0 l/m 0 min 0 min 12 W/m 22,5 km/h (4 Bft) 97,87 %
03.10.2023 08:52 19,8 C 18,9 C 15,0 C 84 % 1011,7 hPa 0,0 l/m 0 min 0 min 15 W/m 19,3 km/h (3 Bft) 95,74 %
03.10.2023 08:54 19,8 C 18,9 C 15,0 C 84 % 1011,8 hPa 0,0 l/m 0 min 0 min 11 W/m 16,1 km/h (3 Bft) 95,65 %
03.10.2023 08:56 19,7 C 18,9 C 15,0 C 84 % 1011,8 hPa 0,0 l/m 0 min 0 min 13 W/m 19,3 km/h (3 Bft) 97,87 %
03.10.2023 08:58 19,7 C 18,9 C 15,0 C 84 % 1011,9 hPa 0,0 l/m 0 min 0 min 19 W/m 19,3 km/h (3 Bft) 95,74 %
03.10.2023 09:00 19,7 C 18,9 C 15,0 C 84 % 1011,7 hPa 0,0 l/m 0 min 0 min 26 W/m 12,9 km/h (3 Bft) 95,74 %
03.10.2023 09:02 19,7 C 18,9 C 15,0 C 84 % 1011,8 hPa 0,0 l/m 0 min 0 min 29 W/m 16,1 km/h (3 Bft) 97,87 %
03.10.2023 09:04 19,7 C 18,9 C 15,0 C 84 % 1011,8 hPa 0,0 l/m 0 min 0 min 32 W/m 12,9 km/h (3 Bft) 97,92 %
03.10.2023 09:08 19,6 C 18,9 C 15,0 C 84 % 1011,6 hPa 0,0 l/m 0 min 0 min 38 W/m 19,3 km/h (3 Bft) 97,80 %
03.10.2023 09:12 19,6 C 18,9 C 15,0 C 84 % 1011,8 hPa 0,0 l/m 0 min 0 min 44 W/m 12,9 km/h (3 Bft) 94,59 %
03.10.2023 09:14 19,6 C 18,9 C 15,0 C 84 % 1011,7 hPa 0,0 l/m 0 min 0 min 46 W/m 19,3 km/h (3 Bft) 97,87 %
03.10.2023 09:16 19,6 C 18,9 C 15,0 C 84 % 1011,8 hPa 0,0 l/m 0 min 0 min 47 W/m 12,9 km/h (3 Bft) 97,96 %
03.10.2023 09:18 19,6 C 18,9 C 15,0 C 84 % 1011,6 hPa 0,0 l/m 0 min 0 min 45 W/m 12,9 km/h (3 Bft) 97,62 %
03.10.2023 09:20 19,6 C 18,9 C 15,0 C 84 % 1011,8 hPa 0,0 l/m 0 min 0 min 47 W/m 9,7 km/h (2 Bft) 97,87 %
03.10.2023 09:22 19,6 C 18,9 C 15,0 C 84 % 1012,0 hPa 0,0 l/m 0 min 0 min 52 W/m 19,3 km/h (3 Bft) 95,74 %
03.10.2023 09:24 19,6 C 18,9 C 15,0 C 84 % 1012,0 hPa 0,0 l/m 0 min 0 min 60 W/m 16,1 km/h (3 Bft) 94,00 %
03.10.2023 09:26 19,5 C 18,9 C 15,0 C 84 % 1011,9 hPa 0,0 l/m 0 min 0 min 82 W/m 16,1 km/h (3 Bft) 95,74 %
03.10.2023 09:28 19,6 C 18,9 C 15,0 C 84 % 1011,7 hPa 0,0 l/m 0 min 0 min 100 W/m 19,3 km/h (3 Bft) 97,87 %
03.10.2023 09:30 19,6 C 18,9 C 15,0 C 84 % 1011,6 hPa 0,0 l/m 0 min 0 min 107 W/m 6,4 km/h (2 Bft) 97,87 %
03.10.2023 09:32 19,6 C 18,9 C 15,0 C 84 % 1011,6 hPa 0,0 l/m 0 min 0 min 105 W/m 16,1 km/h (3 Bft) 97,87 %
03.10.2023 09:34 19,6 C 18,9 C 15,0 C 84 % 1011,8 hPa 0,0 l/m 0 min 0 min 98 W/m 12,9 km/h (3 Bft) 93,75 %
03.10.2023 09:36 19,6 C 18,9 C 15,0 C 84 % 1012,2 hPa 0,0 l/m 0 min 0 min 91 W/m 16,1 km/h (3 Bft) 95,74 %
03.10.2023 09:38 19,6 C 18,9 C 15,0 C 84 % 1012,1 hPa 0,0 l/m 0 min 0 min 84 W/m 16,1 km/h (3 Bft) 95,74 %
03.10.2023 09:40 19,6 C 18,9 C 15,0 C 84 % 1012,1 hPa 0,0 l/m 0 min 0 min 83 W/m 12,9 km/h (3 Bft) 95,92 %
03.10.2023 09:42 19,6 C 18,9 C 15,0 C 84 % 1012,0 hPa 0,0 l/m 0 min 0 min 80 W/m 16,1 km/h (3 Bft) 93,62 %
03.10.2023 09:44 19,6 C 18,9 C 15,0 C 84 % 1012,1 hPa 0,0 l/m 0 min 0 min 66 W/m 19,3 km/h (3 Bft) 95,74 %
03.10.2023 09:46 19,6 C 18,9 C 15,0 C 84 % 1012,0 hPa 0,0 l/m 0 min 0 min 70 W/m 16,1 km/h (3 Bft) 97,87 %
03.10.2023 09:48 19,6 C 18,9 C 15,0 C 84 % 1011,9 hPa 0,0 l/m 0 min 0 min 84 W/m 12,9 km/h (3 Bft) 97,87 %
03.10.2023 09:50 19,6 C 18,9 C 15,0 C 84 % 1012,0 hPa 0,0 l/m 0 min 0 min 90 W/m 22,5 km/h (4 Bft) 97,14 %
03.10.2023 09:52 19,6 C 18,9 C 15,0 C 84 % 1012,1 hPa 0,0 l/m 0 min 0 min 91 W/m 19,3 km/h (3 Bft) 96,61 %
03.10.2023 09:54 19,6 C 18,9 C 15,0 C 84 % 1012,1 hPa 0,0 l/m 0 min 0 min 85 W/m 19,3 km/h (3 Bft) 97,87 %
03.10.2023 09:56 19,6 C 18,9 C 15,0 C 84 % 1012,1 hPa 0,0 l/m 0 min 0 min 84 W/m 16,1 km/h (3 Bft) 97,22 %
03.10.2023 09:58 19,6 C 18,9 C 15,0 C 84 % 1012,0 hPa 0,0 l/m 0 min 0 min 94 W/m 16,1 km/h (3 Bft) 97,62 %
03.10.2023 10:00 19,6 C 18,9 C 15,0 C 84 % 1012,3 hPa 0,0 l/m 0 min 0 min 97 W/m 19,3 km/h (3 Bft) 97,87 %
03.10.2023 10:02 19,6 C 18,9 C 15,0 C 84 % 1012,3 hPa 0,0 l/m 0 min 0 min 83 W/m 22,5 km/h (4 Bft) 97,83 %
03.10.2023 10:04 19,6 C 18,9 C 15,0 C 84 % 1012,3 hPa 0,0 l/m 0 min 0 min 79 W/m 12,9 km/h (3 Bft) 98,18 %
03.10.2023 10:06 19,6 C 18,9 C 15,0 C 84 % 1012,3 hPa 0,0 l/m 0 min 0 min 89 W/m 19,3 km/h (3 Bft) 97,87 %
03.10.2023 10:08 19,6 C 18,9 C 15,0 C 84 % 1012,4 hPa 0,0 l/m 0 min 0 min 81 W/m 12,9 km/h (3 Bft) 95,74 %
03.10.2023 10:10 19,6 C 18,9 C 15,0 C 84 % 1012,5 hPa 0,0 l/m 0 min 0 min 71 W/m 22,5 km/h (4 Bft) 91,49 %
03.10.2023 10:12 19,6 C 18,9 C 15,0 C 84 % 1012,5 hPa 0,0 l/m 0 min 0 min 72 W/m 25,7 km/h (4 Bft) 95,65 %
03.10.2023 10:14 19,6 C 18,9 C 15,0 C 84 % 1012,5 hPa 0,0 l/m 0 min 0 min 71 W/m 29,0 km/h (5 Bft) 97,87 %
03.10.2023 10:16 19,6 C 18,9 C 15,0 C 84 % 1012,5 hPa 0,0 l/m 0 min 0 min 45 W/m 22,5 km/h (4 Bft) 93,62 %
03.10.2023 10:18 19,6 C 18,9 C 15,0 C 84 % 1012,6 hPa 0,0 l/m 0 min 0 min 43 W/m 25,7 km/h (4 Bft) 97,87 %
03.10.2023 10:20 19,6 C 18,9 C 15,0 C 84 % 1012,4 hPa 0,0 l/m 0 min 0 min 34 W/m 19,3 km/h (3 Bft) 97,87 %
03.10.2023 10:22 19,6 C 18,9 C 15,0 C 84 % 1012,6 hPa 0,0 l/m 0 min 0 min 36 W/m 32,2 km/h (5 Bft) 95,74 %
03.10.2023 10:24 19,6 C 18,9 C 15,0 C 85 % 1012,5 hPa 0,0 l/m 0 min 0 min 41 W/m 12,9 km/h (3 Bft) 97,87 %
03.10.2023 10:26 19,6 C 18,9 C 15,0 C 85 % 1012,5 hPa 0,0 l/m 0 min 0 min 56 W/m 22,5 km/h (4 Bft) 97,87 %
03.10.2023 10:28 19,5 C 18,9 C 14,4 C 85 % 1012,5 hPa 0,0 l/m 0 min 0 min 46 W/m 19,3 km/h (3 Bft) 97,87 %
03.10.2023 10:30 19,5 C 18,9 C 14,4 C 85 % 1012,6 hPa 0,0 l/m 0 min 0 min 41 W/m 22,5 km/h (4 Bft) 95,74 %
03.10.2023 10:32 19,4 C 18,9 C 15,0 C 85 % 1012,7 hPa 0,0 l/m 0 min 0 min 29 W/m 19,3 km/h (3 Bft) 97,87 %
03.10.2023 10:34 19,4 C 18,3 C 15,0 C 85 % 1012,8 hPa 0,0 l/m 0 min 0 min 20 W/m 25,7 km/h (4 Bft) 97,87 %
03.10.2023 10:36 19,4 C 18,3 C 15,0 C 85 % 1012,9 hPa 0,0 l/m 0 min 0 min 30 W/m 22,5 km/h (4 Bft) 97,83 %
03.10.2023 10:38 19,4 C 18,3 C 15,0 C 86 % 1012,8 hPa 0,0 l/m 0 min 0 min 38 W/m 19,3 km/h (3 Bft) 97,87 %
03.10.2023 10:40 19,4 C 18,9 C 15,0 C 86 % 1012,8 hPa 0,0 l/m 0 min 0 min 60 W/m 29,0 km/h (5 Bft) 97,87 %
03.10.2023 10:42 19,4 C 18,9 C 15,0 C 86 % 1012,7 hPa 0,0 l/m 0 min 0 min 70 W/m 9,7 km/h (2 Bft) 97,87 %
03.10.2023 10:44 19,4 C 18,9 C 15,0 C 86 % 1012,9 hPa 0,0 l/m 0 min 0 min 65 W/m 12,9 km/h (3 Bft) 97,87 %
03.10.2023 10:46 19,4 C 18,9 C 15,0 C 86 % 1012,9 hPa 0,0 l/m 0 min 0 min 75 W/m 25,7 km/h (4 Bft) 95,74 %
03.10.2023 10:48 19,4 C 18,9 C 15,0 C 86 % 1012,8 hPa 0,0 l/m 0 min 0 min 87 W/m 22,5 km/h (4 Bft) 97,87 %
03.10.2023 10:50 19,4 C 18,9 C 15,0 C 86 % 1012,8 hPa 0,0 l/m 0 min 0 min 86 W/m 22,5 km/h (4 Bft) 97,87 %
03.10.2023 10:52 19,4 C 18,9 C 15,0 C 86 % 1012,8 hPa 0,0 l/m 0 min 0 min 78 W/m 12,9 km/h (3 Bft) 100,00 %
03.10.2023 10:54 19,4 C 18,9 C 15,0 C 86 % 1012,7 hPa 0,0 l/m 0 min 0 min 88 W/m 19,3 km/h (3 Bft) 100,00 %
03.10.2023 10:56 19,4 C 18,9 C 15,0 C 86 % 1012,7 hPa 0,0 l/m 0 min 0 min 91 W/m 16,1 km/h (3 Bft) 100,00 %
03.10.2023 10:58 19,4 C 18,9 C 15,0 C 86 % 1012,9 hPa 0,0 l/m 0 min 0 min 93 W/m 19,3 km/h (3 Bft) 100,00 %
03.10.2023 11:00 19,5 C 18,9 C 15,0 C 86 % 1012,9 hPa 0,0 l/m 0 min 0 min 89 W/m 19,3 km/h (3 Bft) 100,00 %
03.10.2023 11:02 19,5 C 18,9 C 15,0 C 86 % 1012,8 hPa 0,0 l/m 0 min 0 min 103 W/m 19,3 km/h (3 Bft) 100,00 %
03.10.2023 11:04 19,6 C 18,9 C 15,0 C 86 % 1012,6 hPa 0,0 l/m 0 min 0 min 106 W/m 29,0 km/h (5 Bft) 100,00 %
03.10.2023 11:06 19,6 C 18,9 C 15,0 C 85 % 1012,7 hPa 0,0 l/m 0 min 0 min 102 W/m 19,3 km/h (3 Bft) 100,00 %
03.10.2023 11:08 19,6 C 18,9 C 15,0 C 85 % 1013,1 hPa 0,0 l/m 0 min 0 min 101 W/m 38,6 km/h (5 Bft) 100,00 %
03.10.2023 11:10 19,6 C 18,9 C 15,0 C 85 % 1012,8 hPa 0,0 l/m 0 min 0 min 97 W/m 25,7 km/h (4 Bft) 100,00 %
03.10.2023 11:12 19,6 C 18,9 C 15,0 C 85 % 1012,7 hPa 0,0 l/m 0 min 0 min 96 W/m 19,3 km/h (3 Bft) 98,00 %
03.10.2023 11:14 19,6 C 18,9 C 15,0 C 85 % 1012,7 hPa 0,0 l/m 0 min 0 min 96 W/m 12,9 km/h (3 Bft) 100,00 %
03.10.2023 11:16 19,6 C 18,9 C 15,0 C 85 % 1012,8 hPa 0,0 l/m 0 min 0 min 85 W/m 29,0 km/h (5 Bft) 100,00 %
03.10.2023 11:18 19,6 C 18,9 C 15,0 C 85 % 1012,8 hPa 0,0 l/m 0 min 0 min 70 W/m 16,1 km/h (3 Bft) 100,00 %
03.10.2023 11:20 19,7 C 18,9 C 15,0 C 85 % 1012,9 hPa 0,0 l/m 0 min 0 min 68 W/m 22,5 km/h (4 Bft) 100,00 %
03.10.2023 11:22 19,7 C 18,9 C 15,0 C 85 % 1012,8 hPa 0,0 l/m 0 min 0 min 68 W/m 19,3 km/h (3 Bft) 97,87 %
03.10.2023 11:24 19,7 C 18,9 C 15,0 C 85 % 1012,8 hPa 0,0 l/m 0 min 0 min 94 W/m 19,3 km/h (3 Bft) 100,00 %
03.10.2023 11:26 19,7 C 18,9 C 15,0 C 85 % 1012,9 hPa 0,0 l/m 0 min 0 min 126 W/m 22,5 km/h (4 Bft) 100,00 %
03.10.2023 11:28 19,7 C 18,9 C 15,6 C 85 % 1012,9 hPa 0,0 l/m 0 min 0 min 124 W/m 12,9 km/h (3 Bft) 100,00 %
03.10.2023 11:30 19,7 C 18,9 C 15,6 C 85 % 1012,9 hPa 0,0 l/m 0 min 0 min 113 W/m 22,5 km/h (4 Bft) 100,00 %
03.10.2023 11:32 19,7 C 18,9 C 15,6 C 85 % 1013,1 hPa 0,0 l/m 0 min 0 min 74 W/m 16,1 km/h (3 Bft) 100,00 %
03.10.2023 11:34 19,7 C 18,9 C 15,6 C 85 % 1013,0 hPa 0,0 l/m 0 min 0 min 83 W/m 19,3 km/h (3 Bft) 100,00 %
03.10.2023 11:36 19,7 C 18,9 C 15,6 C 85 % 1013,0 hPa 0,0 l/m 0 min 0 min 87 W/m 12,9 km/h (3 Bft) 95,74 %
03.10.2023 11:38 19,7 C 18,9 C 15,6 C 85 % 1013,0 hPa 0,0 l/m 0 min 0 min 92 W/m 19,3 km/h (3 Bft) 100,00 %
03.10.2023 11:40 19,7 C 18,9 C 15,6 C 85 % 1012,9 hPa 0,0 l/m 0 min 0 min 98 W/m 19,3 km/h (3 Bft) 100,00 %
03.10.2023 11:42 19,7 C 18,9 C 15,0 C 85 % 1013,0 hPa 0,0 l/m 0 min 0 min 82 W/m 35,4 km/h (5 Bft) 100,00 %
03.10.2023 11:44 19,7 C 18,9 C 15,0 C 85 % 1013,1 hPa 0,0 l/m 0 min 0 min 80 W/m 16,1 km/h (3 Bft) 100,00 %
03.10.2023 11:46 19,7 C 18,9 C 15,0 C 85 % 1013,0 hPa 0,0 l/m 0 min 0 min 75 W/m 19,3 km/h (3 Bft) 97,87 %
03.10.2023 11:48 19,7 C 18,9 C 15,0 C 85 % 1012,9 hPa 0,0 l/m 0 min 0 min 78 W/m 12,9 km/h (3 Bft) 100,00 %
03.10.2023 11:50 19,7 C 18,9 C 15,0 C 86 % 1013,0 hPa 0,0 l/m 0 min 0 min 67 W/m 16,1 km/h (3 Bft) 100,00 %
03.10.2023 11:52 19,7 C 18,9 C 15,0 C 86 % 1013,0 hPa 0,0 l/m 0 min 0 min 87 W/m 19,3 km/h (3 Bft) 100,00 %
03.10.2023 11:54 19,7 C 18,9 C 15,0 C 86 % 1013,3 hPa 0,0 l/m 0 min 0 min 75 W/m 29,0 km/h (5 Bft) 100,00 %
03.10.2023 11:56 19,6 C 18,9 C 15,0 C 86 % 1013,2 hPa 0,0 l/m 0 min 0 min 49 W/m 19,3 km/h (3 Bft) 97,87 %
03.10.2023 11:58 19,6 C 18,9 C 15,0 C 86 % 1013,2 hPa 0,0 l/m 0 min 0 min 41 W/m 25,7 km/h (4 Bft) 97,83 %
03.10.2023 12:00 19,6 C 18,9 C 15,0 C 86 % 1013,1 hPa 0,0 l/m 0 min 0 min 39 W/m 22,5 km/h (4 Bft) 97,87 %
03.10.2023 12:02 19,6 C 18,9 C 14,4 C 86 % 1013,1 hPa 0,0 l/m 0 min 2 min 29 W/m 25,7 km/h (4 Bft) 97,87 %
03.10.2023 12:04 19,6 C 17,8 C 13,3 C 87 % 1013,4 hPa 0,6 l/m 0 min 2 min 30 W/m 19,3 km/h (3 Bft) 95,45 %
03.10.2023 12:08 19,2 C 16,7 C 12,8 C 89 % 1013,3 hPa 1,2 l/m 0 min 4 min 36 W/m 22,5 km/h (4 Bft) 91,67 %
03.10.2023 12:10 18,9 C 16,7 C 12,8 C 90 % 1013,4 hPa 0,2 l/m 0 min 2 min 40 W/m 22,5 km/h (4 Bft) 97,87 %
03.10.2023 12:12 18,7 C 16,7 C 12,8 C 90 % 1013,5 hPa 0,2 l/m 0 min 2 min 20 W/m 16,1 km/h (3 Bft) 91,49 %
03.10.2023 12:16 18,4 C 16,7 C 12,8 C 91 % 1013,4 hPa 0,6 l/m 0 min 4 min 39 W/m 19,3 km/h (3 Bft) 95,70 %
03.10.2023 12:18 18,2 C 16,1 C 12,8 C 92 % 1013,3 hPa 0,4 l/m 0 min 2 min 98 W/m 22,5 km/h (4 Bft) 93,62 %
03.10.2023 12:20 18,1 C 16,1 C 12,8 C 92 % 1013,3 hPa 0,2 l/m 0 min 2 min 140 W/m 19,3 km/h (3 Bft) 93,62 %
03.10.2023 12:22 18,0 C 16,1 C 12,8 C 93 % 1013,5 hPa 0,0 l/m 0 min 2 min 86 W/m 12,9 km/h (3 Bft) 91,49 %
03.10.2023 12:24 17,9 C 16,1 C 12,8 C 93 % 1013,5 hPa 0,0 l/m 0 min 2 min 70 W/m 16,1 km/h (3 Bft) 93,62 %
03.10.2023 12:26 17,8 C 16,1 C 12,8 C 93 % 1013,6 hPa 0,0 l/m 0 min 0 min 49 W/m 16,1 km/h (3 Bft) 91,49 %
03.10.2023 12:28 17,8 C 16,1 C 12,8 C 94 % 1013,6 hPa 0,0 l/m 0 min 2 min 42 W/m 16,1 km/h (3 Bft) 91,49 %
03.10.2023 12:30 17,7 C 16,1 C 12,8 C 94 % 1013,7 hPa 0,0 l/m 0 min 0 min 33 W/m 12,9 km/h (3 Bft) 93,62 %
03.10.2023 12:32 17,7 C 16,1 C 12,8 C 94 % 1013,7 hPa 0,0 l/m 0 min 0 min 30 W/m 22,5 km/h (4 Bft) 91,49 %
03.10.2023 12:34 17,7 C 16,1 C 12,8 C 94 % 1013,7 hPa 0,0 l/m 0 min 0 min 52 W/m 19,3 km/h (3 Bft) 93,48 %
03.10.2023 12:36 17,6 C 16,1 C 12,8 C 95 % 1013,9 hPa 0,0 l/m 0 min 0 min 79 W/m 16,1 km/h (3 Bft) 89,36 %
03.10.2023 12:38 17,6 C 16,7 C 12,8 C 95 % 1013,8 hPa 0,0 l/m 0 min 0 min 80 W/m 12,9 km/h (3 Bft) 91,49 %
03.10.2023 12:40 17,6 C 16,7 C 12,8 C 95 % 1013,9 hPa 0,0 l/m 0 min 0 min 79 W/m 12,9 km/h (3 Bft) 93,62 %
03.10.2023 12:42 17,6 C 16,7 C 12,8 C 95 % 1014,0 hPa 0,0 l/m 0 min 0 min 96 W/m 16,1 km/h (3 Bft) 91,49 %
03.10.2023 12:44 17,6 C 16,7 C 12,8 C 95 % 1014,0 hPa 0,0 l/m 0 min 0 min 116 W/m 19,3 km/h (3 Bft) 93,62 %
03.10.2023 12:46 17,5 C 16,7 C 12,8 C 95 % 1014,1 hPa 0,0 l/m 0 min 0 min 132 W/m 25,7 km/h (4 Bft) 95,74 %
03.10.2023 12:48 17,4 C 16,7 C 12,8 C 95 % 1014,1 hPa 0,0 l/m 0 min 0 min 142 W/m 16,1 km/h (3 Bft) 93,62 %
03.10.2023 12:50 17,4 C 16,7 C 12,8 C 95 % 1014,1 hPa 0,0 l/m 0 min 0 min 144 W/m 16,1 km/h (3 Bft) 97,87 %
03.10.2023 12:52 17,4 C 16,7 C 12,8 C 95 % 1014,2 hPa 0,0 l/m 0 min 0 min 144 W/m 19,3 km/h (3 Bft) 97,87 %
03.10.2023 12:54 17,4 C 16,7 C 12,2 C 95 % 1014,3 hPa 0,0 l/m 0 min 0 min 139 W/m 29,0 km/h (5 Bft) 97,83 %
03.10.2023 12:56 17,4 C 16,7 C 12,2 C 95 % 1014,3 hPa 0,0 l/m 0 min 0 min 138 W/m 25,7 km/h (4 Bft) 95,74 %
03.10.2023 12:58 17,4 C 16,7 C 12,2 C 95 % 1014,3 hPa 0,0 l/m 0 min 0 min 139 W/m 16,1 km/h (3 Bft) 97,73 %
03.10.2023 13:00 17,4 C 16,7 C 12,2 C 95 % 1014,3 hPa 0,0 l/m 0 min 0 min 143 W/m 19,3 km/h (3 Bft) 100,00 %
03.10.2023 13:02 17,3 C 16,7 C 12,2 C 95 % 1014,3 hPa 0,0 l/m 0 min 0 min 161 W/m 12,9 km/h (3 Bft) 95,74 %
03.10.2023 13:04 17,3 C 16,7 C 12,2 C 95 % 1014,2 hPa 0,0 l/m 0 min 0 min 173 W/m 16,1 km/h (3 Bft) 100,00 %
03.10.2023 13:10 17,3 C 17,2 C 12,2 C 94 % 1014,2 hPa 0,0 l/m 0 min 0 min 191 W/m 16,1 km/h (3 Bft) 99,25 %
03.10.2023 13:12 17,3 C 17,2 C 12,2 C 94 % 1014,1 hPa 0,0 l/m 0 min 0 min 208 W/m 19,3 km/h (3 Bft) 97,83 %
03.10.2023 13:14 17,3 C 17,2 C 12,2 C 94 % 1014,2 hPa 0,0 l/m 0 min 0 min 212 W/m 22,5 km/h (4 Bft) 100,00 %
03.10.2023 13:16 17,2 C 17,2 C 12,2 C 93 % 1014,3 hPa 0,0 l/m 0 min 0 min 202 W/m 22,5 km/h (4 Bft) 100,00 %
03.10.2023 13:18 17,3 C 17,2 C 12,2 C 93 % 1014,3 hPa 0,0 l/m 0 min 0 min 168 W/m 12,9 km/h (3 Bft) 100,00 %
03.10.2023 13:20 17,3 C 17,2 C 12,2 C 93 % 1014,3 hPa 0,0 l/m 0 min 0 min 135 W/m 16,1 km/h (3 Bft) 100,00 %
03.10.2023 13:22 17,3 C 16,7 C 12,2 C 93 % 1014,4 hPa 0,0 l/m 0 min 0 min 86 W/m 12,9 km/h (3 Bft) 100,00 %
03.10.2023 13:24 17,2 C 16,7 C 12,2 C 92 % 1014,3 hPa 0,0 l/m 0 min 0 min 73 W/m 16,1 km/h (3 Bft) 100,00 %
03.10.2023 13:26 17,2 C 16,7 C 11,7 C 92 % 1014,2 hPa 0,0 l/m 0 min 0 min 69 W/m 9,7 km/h (2 Bft) 95,74 %
03.10.2023 13:28 17,2 C 16,7 C 12,2 C 92 % 1014,2 hPa 0,0 l/m 0 min 0 min 69 W/m 9,7 km/h (2 Bft) 100,00 %
03.10.2023 13:30 17,2 C 16,7 C 11,7 C 92 % 1014,2 hPa 0,0 l/m 0 min 0 min 75 W/m 25,7 km/h (4 Bft) 100,00 %
03.10.2023 13:32 17,2 C 16,7 C 11,7 C 92 % 1014,4 hPa 0,0 l/m 0 min 0 min 80 W/m 22,5 km/h (4 Bft) 100,00 %
03.10.2023 13:34 17,2 C 16,7 C 11,7 C 92 % 1014,3 hPa 0,0 l/m 0 min 0 min 115 W/m 16,1 km/h (3 Bft) 100,00 %
03.10.2023 13:36 17,2 C 16,7 C 11,7 C 92 % 1014,4 hPa 0,0 l/m 0 min 0 min 88 W/m 22,5 km/h (4 Bft) 100,00 %
03.10.2023 13:38 17,2 C 16,7 C 11,7 C 92 % 1014,4 hPa 0,0 l/m 0 min 0 min 75 W/m 12,9 km/h (3 Bft) 100,00 %
03.10.2023 13:40 17,2 C 16,7 C 11,7 C 91 % 1014,5 hPa 0,0 l/m 0 min 0 min 96 W/m 19,3 km/h (3 Bft) 97,87 %
03.10.2023 13:42 17,2 C 16,7 C 11,7 C 91 % 1014,5 hPa 0,0 l/m 0 min 0 min 148 W/m 19,3 km/h (3 Bft) 100,00 %
03.10.2023 13:44 17,2 C 16,7 C 11,7 C 91 % 1014,5 hPa 0,0 l/m 0 min 0 min 142 W/m 25,7 km/h (4 Bft) 100,00 %
03.10.2023 13:46 17,2 C 16,7 C 11,7 C 91 % 1014,6 hPa 0,0 l/m 0 min 0 min 122 W/m 22,5 km/h (4 Bft) 100,00 %
03.10.2023 13:48 17,2 C 16,7 C 11,7 C 91 % 1014,7 hPa 0,0 l/m 0 min 0 min 126 W/m 19,3 km/h (3 Bft) 100,00 %
03.10.2023 13:50 17,2 C 16,7 C 11,7 C 90 % 1014,8 hPa 0,0 l/m 0 min 0 min 121 W/m 25,7 km/h (4 Bft) 100,00 %
03.10.2023 13:52 17,2 C 16,7 C 11,7 C 90 % 1014,8 hPa 0,0 l/m 0 min 0 min 114 W/m 12,9 km/h (3 Bft) 100,00 %
03.10.2023 13:54 17,2 C 16,7 C 11,7 C 91 % 1014,9 hPa 0,0 l/m 0 min 0 min 111 W/m 16,1 km/h (3 Bft) 100,00 %
03.10.2023 13:56 17,2 C 16,7 C 11,7 C 91 % 1014,9 hPa 0,0 l/m 0 min 0 min 113 W/m 12,9 km/h (3 Bft) 100,00 %
03.10.2023 13:58 17,2 C 16,7 C 11,7 C 90 % 1014,9 hPa 0,0 l/m 0 min 0 min 120 W/m 16,1 km/h (3 Bft) 100,00 %
03.10.2023 14:00 17,2 C 16,7 C 11,7 C 90 % 1015,0 hPa 0,0 l/m 0 min 0 min 100 W/m 16,1 km/h (3 Bft) 100,00 %
03.10.2023 14:02 17,2 C 16,7 C 11,7 C 90 % 1014,9 hPa 0,0 l/m 0 min 0 min 99 W/m 22,5 km/h (4 Bft) 97,87 %
03.10.2023 14:04 17,2 C 16,7 C 11,7 C 90 % 1015,1 hPa 0,0 l/m 0 min 0 min 122 W/m 32,2 km/h (5 Bft) 100,00 %
03.10.2023 14:08 17,2 C 16,7 C 11,7 C 90 % 1015,4 hPa 0,0 l/m 0 min 0 min 132 W/m 19,3 km/h (3 Bft) 100,00 %
03.10.2023 14:09 17,2 C 16,7 C 11,7 C 90 % 1015,4 hPa 0,0 l/m 0 min 0 min 88 W/m 22,5 km/h (4 Bft) 95,83 %
03.10.2023 14:12 17,2 C 16,7 C 11,7 C 90 % 1015,4 hPa 0,0 l/m 0 min 0 min 84 W/m 19,3 km/h (3 Bft) 98,57 %
03.10.2023 14:14 17,2 C 16,7 C 11,7 C 89 % 1015,3 hPa 0,0 l/m 0 min 0 min 130 W/m 12,9 km/h (3 Bft) 97,87 %
03.10.2023 14:16 17,2 C 16,7 C 11,1 C 90 % 1015,2 hPa 0,0 l/m 0 min 0 min 135 W/m 22,5 km/h (4 Bft) 97,87 %
03.10.2023 14:18 17,2 C 16,7 C 11,7 C 89 % 1015,3 hPa 0,0 l/m 0 min 0 min 149 W/m 25,7 km/h (4 Bft) 95,74 %
03.10.2023 14:20 17,3 C 16,7 C 11,7 C 89 % 1015,4 hPa 0,0 l/m 0 min 0 min 113 W/m 19,3 km/h (3 Bft) 95,74 %
03.10.2023 14:22 17,3 C 16,7 C 11,7 C 89 % 1015,5 hPa 0,0 l/m 0 min 0 min 74 W/m 16,1 km/h (3 Bft) 93,48 %
03.10.2023 14:24 17,3 C 16,7 C 11,7 C 89 % 1015,7 hPa 0,0 l/m 0 min 0 min 69 W/m 19,3 km/h (3 Bft) 97,87 %
03.10.2023 14:26 17,3 C 16,7 C 11,1 C 89 % 1015,7 hPa 0,0 l/m 0 min 0 min 64 W/m 16,1 km/h (3 Bft) 100,00 %
03.10.2023 14:28 17,2 C 16,7 C 11,1 C 89 % 1015,7 hPa 0,0 l/m 0 min 0 min 48 W/m 16,1 km/h (3 Bft) 97,87 %
03.10.2023 14:30 17,2 C 16,7 C 11,1 C 89 % 1015,8 hPa 0,0 l/m 0 min 0 min 52 W/m 19,3 km/h (3 Bft) 97,87 %
03.10.2023 14:32 17,2 C 16,7 C 11,1 C 89 % 1015,9 hPa 0,0 l/m 0 min 0 min 37 W/m 22,5 km/h (4 Bft) 93,62 %
03.10.2023 14:34 17,2 C 16,1 C 11,1 C 89 % 1016,2 hPa 0,0 l/m 0 min 0 min 50 W/m 38,6 km/h (5 Bft) 95,74 %
03.10.2023 14:36 17,0 C 16,1 C 11,1 C 89 % 1016,2 hPa 0,0 l/m 0 min 2 min 108 W/m 38,6 km/h (5 Bft) 97,87 %
03.10.2023 14:38 16,8 C 16,1 C 11,1 C 89 % 1016,3 hPa 0,0 l/m 0 min 2 min 158 W/m 32,2 km/h (5 Bft) 97,87 %
03.10.2023 14:40 16,7 C 16,1 C 11,1 C 90 % 1016,4 hPa 0,0 l/m 0 min 2 min 225 W/m 29,0 km/h (5 Bft) 97,87 %
03.10.2023 14:42 16,7 C 16,1 C 11,1 C 90 % 1016,4 hPa 0,0 l/m 2 min 2 min 315 W/m 16,1 km/h (3 Bft) 97,87 %
03.10.2023 14:44 16,7 C 16,7 C 11,1 C 91 % 1016,4 hPa 0,0 l/m 2 min 0 min 352 W/m 19,3 km/h (3 Bft) 95,65 %
03.10.2023 14:46 16,7 C 17,2 C 11,7 C 91 % 1016,4 hPa 0,0 l/m 2 min 0 min 352 W/m 29,0 km/h (5 Bft) 97,87 %
03.10.2023 14:48 16,8 C 17,2 C 11,7 C 91 % 1016,4 hPa 0,0 l/m 2 min 0 min 504 W/m 16,1 km/h (3 Bft) 97,87 %
03.10.2023 14:50 16,9 C 17,2 C 11,7 C 91 % 1016,4 hPa 0,0 l/m 2 min 0 min 555 W/m 16,1 km/h (3 Bft) 97,87 %
03.10.2023 14:52 16,9 C 17,2 C 11,1 C 91 % 1016,3 hPa 0,0 l/m 2 min 0 min 359 W/m 25,7 km/h (4 Bft) 97,87 %
03.10.2023 14:54 16,9 C 16,7 C 11,1 C 90 % 1016,3 hPa 0,0 l/m 0 min 0 min 207 W/m 16,1 km/h (3 Bft) 97,92 %
03.10.2023 14:56 16,9 C 16,7 C 11,1 C 90 % 1016,2 hPa 0,0 l/m 0 min 0 min 201 W/m 16,1 km/h (3 Bft) 93,62 %
03.10.2023 14:58 16,9 C 16,7 C 11,1 C 90 % 1016,3 hPa 0,0 l/m 0 min 0 min 203 W/m 12,9 km/h (3 Bft) 97,87 %
03.10.2023 15:00 16,9 C 17,2 C 11,1 C 90 % 1016,3 hPa 0,0 l/m 0 min 0 min 233 W/m 19,3 km/h (3 Bft) 95,65 %
03.10.2023 15:02 16,9 C 17,2 C 11,7 C 90 % 1016,4 hPa 0,0 l/m 0 min 0 min 220 W/m 16,1 km/h (3 Bft) 97,87 %
03.10.2023 15:04 16,9 C 17,2 C 11,1 C 89 % 1016,3 hPa 0,0 l/m 2 min 0 min 277 W/m 22,5 km/h (4 Bft) 97,83 %
03.10.2023 15:10 17,1 C 17,2 C 11,7 C 89 % 1016,4 hPa 0,0 l/m 0 min 0 min 230 W/m 16,1 km/h (3 Bft) 95,00 %
03.10.2023 15:12 17,2 C 17,2 C 11,1 C 89 % 1016,4 hPa 0,0 l/m 0 min 0 min 149 W/m 19,3 km/h (3 Bft) 95,74 %
03.10.2023 15:14 17,2 C 16,7 C 11,1 C 89 % 1016,5 hPa 0,0 l/m 0 min 0 min 110 W/m 16,1 km/h (3 Bft) 95,74 %
03.10.2023 15:16 17,2 C 16,7 C 11,1 C 89 % 1016,5 hPa 0,0 l/m 0 min 0 min 104 W/m 12,9 km/h (3 Bft) 95,74 %
03.10.2023 15:18 17,2 C 16,7 C 11,1 C 89 % 1016,5 hPa 0,0 l/m 0 min 0 min 102 W/m 25,7 km/h (4 Bft) 95,74 %
03.10.2023 15:20 17,1 C 16,7 C 11,1 C 88 % 1016,6 hPa 0,0 l/m 0 min 0 min 137 W/m 19,3 km/h (3 Bft) 95,74 %
03.10.2023 15:22 17,1 C 16,7 C 11,1 C 88 % 1016,7 hPa 0,0 l/m 0 min 0 min 146 W/m 12,9 km/h (3 Bft) 95,65 %
03.10.2023 15:28 17,1 C 16,7 C 11,1 C 88 % 1016,8 hPa 0,0 l/m 0 min 0 min 94 W/m 25,7 km/h (4 Bft) 94,12 %
03.10.2023 15:30 17,1 C 16,7 C 11,1 C 87 % 1016,9 hPa 0,0 l/m 0 min 0 min 80 W/m 22,5 km/h (4 Bft) 94,59 %
03.10.2023 15:32 17,1 C 16,7 C 11,1 C 87 % 1017,0 hPa 0,0 l/m 0 min 0 min 87 W/m 22,5 km/h (4 Bft) 95,74 %
03.10.2023 15:34 17,1 C 16,7 C 11,1 C 87 % 1017,1 hPa 0,0 l/m 0 min 0 min 78 W/m 16,1 km/h (3 Bft) 95,74 %
03.10.2023 15:36 17,1 C 16,7 C 10,6 C 87 % 1017,1 hPa 0,0 l/m 0 min 0 min 74 W/m 19,3 km/h (3 Bft) 97,96 %
03.10.2023 15:38 17,0 C 16,1 C 10,6 C 87 % 1017,4 hPa 0,0 l/m 0 min 0 min 64 W/m 22,5 km/h (4 Bft) 97,87 %
03.10.2023 15:40 16,9 C 16,1 C 10,6 C 87 % 1017,2 hPa 0,0 l/m 0 min 0 min 69 W/m 22,5 km/h (4 Bft) 97,87 %
03.10.2023 15:42 16,8 C 16,1 C 10,6 C 87 % 1017,3 hPa 0,0 l/m 0 min 0 min 77 W/m 19,3 km/h (3 Bft) 100,00 %
03.10.2023 15:44 16,8 C 16,7 C 11,1 C 87 % 1017,4 hPa 0,0 l/m 2 min 0 min 482 W/m 22,5 km/h (4 Bft) 95,74 %
03.10.2023 15:46 16,8 C 16,7 C 11,1 C 87 % 1017,4 hPa 0,0 l/m 2 min 0 min 492 W/m 22,5 km/h (4 Bft) 95,74 %
03.10.2023 15:48 16,9 C 16,7 C 11,1 C 87 % 1017,4 hPa 0,0 l/m 2 min 0 min 514 W/m 19,3 km/h (3 Bft) 100,00 %
03.10.2023 15:50 17,0 C 16,7 C 11,1 C 88 % 1017,5 hPa 0,0 l/m 2 min 0 min 387 W/m 22,5 km/h (4 Bft) 100,00 %
03.10.2023 15:52 17,0 C 16,7 C 11,1 C 87 % 1017,6 hPa 0,0 l/m 2 min 0 min 262 W/m 35,4 km/h (5 Bft) 100,00 %
03.10.2023 15:54 17,1 C 17,2 C 11,1 C 87 % 1017,6 hPa 0,0 l/m 2 min 0 min 453 W/m 29,0 km/h (5 Bft) 97,87 %
03.10.2023 15:56 17,1 C 17,2 C 12,2 C 87 % 1017,7 hPa 0,0 l/m 2 min 0 min 557 W/m 22,5 km/h (4 Bft) 97,92 %
03.10.2023 15:58 17,1 C 17,2 C 12,8 C 87 % 1017,6 hPa 0,0 l/m 2 min 0 min 541 W/m 29,0 km/h (5 Bft) 100,00 %
03.10.2023 16:00 17,2 C 17,2 C 12,8 C 87 % 1017,6 hPa 0,0 l/m 2 min 0 min 442 W/m 19,3 km/h (3 Bft) 100,00 %
03.10.2023 16:02 17,3 C 17,2 C 12,8 C 87 % 1017,6 hPa 0,0 l/m 2 min 0 min 455 W/m 19,3 km/h (3 Bft) 97,87 %
03.10.2023 16:04 17,3 C 17,2 C 13,3 C 86 % 1017,8 hPa 0,0 l/m 2 min 0 min 464 W/m 16,1 km/h (3 Bft) 100,00 %
03.10.2023 16:08 17,4 C 17,2 C 13,3 C 85 % 1017,9 hPa 0,0 l/m 4 min 0 min 449 W/m 35,4 km/h (5 Bft) 98,78 %
03.10.2023 16:10 17,4 C 16,7 C 13,3 C 84 % 1018,0 hPa 0,0 l/m 0 min 0 min 170 W/m 25,7 km/h (4 Bft) 100,00 %
03.10.2023 16:12 17,4 C 16,7 C 13,3 C 84 % 1018,1 hPa 0,0 l/m 0 min 0 min 81 W/m 35,4 km/h (5 Bft) 52,27 %
03.10.2023 16:14 17,4 C 17,2 C 13,3 C 84 % 1018,0 hPa 0,0 l/m 2 min 0 min 487 W/m 35,4 km/h (5 Bft) 97,87 %
03.10.2023 16:16 17,4 C 17,2 C 13,3 C 83 % 1018,0 hPa 0,0 l/m 2 min 0 min 483 W/m 16,1 km/h (3 Bft) 95,74 %
03.10.2023 16:18 17,4 C 17,2 C 13,3 C 83 % 1018,2 hPa 0,0 l/m 2 min 0 min 483 W/m 25,7 km/h (4 Bft) 97,87 %
03.10.2023 16:20 17,4 C 17,2 C 13,3 C 83 % 1018,1 hPa 0,0 l/m 2 min 0 min 483 W/m 16,1 km/h (3 Bft) 97,87 %
03.10.2023 16:22 17,4 C 17,2 C 13,3 C 83 % 1018,2 hPa 0,0 l/m 2 min 0 min 419 W/m 25,7 km/h (4 Bft) 97,87 %
03.10.2023 16:24 17,4 C 17,2 C 13,3 C 83 % 1018,2 hPa 0,0 l/m 0 min 0 min 190 W/m 12,9 km/h (3 Bft) 97,87 %
03.10.2023 16:26 17,4 C 16,7 C 13,3 C 84 % 1018,2 hPa 0,0 l/m 0 min 0 min 153 W/m 29,0 km/h (5 Bft) 97,83 %
03.10.2023 16:28 17,4 C 16,7 C 12,8 C 83 % 1018,4 hPa 0,0 l/m 0 min 0 min 81 W/m 29,0 km/h (5 Bft) 97,87 %
03.10.2023 16:30 17,3 C 16,7 C 12,8 C 83 % 1018,4 hPa 0,0 l/m 0 min 0 min 118 W/m 19,3 km/h (3 Bft) 97,87 %
03.10.2023 16:32 17,2 C 16,1 C 12,8 C 84 % 1018,5 hPa 0,0 l/m 0 min 0 min 110 W/m 29,0 km/h (5 Bft) 97,87 %
03.10.2023 16:34 17,1 C 16,1 C 12,8 C 84 % 1018,6 hPa 0,0 l/m 0 min 0 min 65 W/m 25,7 km/h (4 Bft) 95,74 %
03.10.2023 16:36 17,1 C 16,1 C 12,2 C 84 % 1018,7 hPa 0,0 l/m 0 min 0 min 47 W/m 25,7 km/h (4 Bft) 97,87 %
03.10.2023 16:38 16,8 C 15,6 C 12,2 C 84 % 1018,7 hPa 0,0 l/m 0 min 0 min 37 W/m 22,5 km/h (4 Bft) 97,87 %
03.10.2023 16:40 16,7 C 15,6 C 12,2 C 84 % 1018,7 hPa 0,0 l/m 0 min 0 min 32 W/m 29,0 km/h (5 Bft) 97,87 %
03.10.2023 16:42 16,5 C 15,6 C 11,7 C 84 % 1018,8 hPa 0,0 l/m 0 min 2 min 35 W/m 38,6 km/h (5 Bft) 97,83 %
03.10.2023 16:44 16,4 C 15,0 C 11,7 C 84 % 1018,9 hPa 0,0 l/m 0 min 0 min 62 W/m 29,0 km/h (5 Bft) 97,87 %
03.10.2023 16:46 16,3 C 15,0 C 11,7 C 85 % 1019,0 hPa 0,0 l/m 0 min 2 min 53 W/m 22,5 km/h (4 Bft) 97,87 %
03.10.2023 16:48 16,2 C 15,0 C 11,7 C 85 % 1019,0 hPa 0,0 l/m 0 min 0 min 44 W/m 29,0 km/h (5 Bft) 95,74 %
03.10.2023 16:50 16,1 C 15,0 C 11,7 C 85 % 1019,1 hPa 0,0 l/m 0 min 0 min 39 W/m 25,7 km/h (4 Bft) 100,00 %
03.10.2023 16:52 16,0 C 15,0 C 11,1 C 86 % 1019,1 hPa 0,0 l/m 0 min 2 min 45 W/m 25,7 km/h (4 Bft) 100,00 %
03.10.2023 16:54 15,9 C 14,4 C 11,1 C 87 % 1019,2 hPa 0,0 l/m 0 min 2 min 41 W/m 12,9 km/h (3 Bft) 100,00 %
03.10.2023 16:56 15,8 C 14,4 C 11,1 C 87 % 1019,4 hPa 0,0 l/m 0 min 2 min 44 W/m 29,0 km/h (5 Bft) 100,00 %
03.10.2023 16:58 15,8 C 14,4 C 10,6 C 88 % 1019,4 hPa 0,0 l/m 0 min 2 min 66 W/m 19,3 km/h (3 Bft) 100,00 %
03.10.2023 17:06 15,7 C 15,6 C 11,1 C 90 % 1019,5 hPa 0,0 l/m 5 min 0 min 225 W/m 9,7 km/h (2 Bft) 100,00 %
03.10.2023 17:08 15,7 C 15,0 C 11,1 C 90 % 1019,5 hPa 0,0 l/m 0 min 0 min 122 W/m 16,1 km/h (3 Bft) 100,00 %
03.10.2023 17:10 15,6 C 15,0 C 11,1 C 90 % 1019,5 hPa 0,0 l/m 0 min 0 min 85 W/m 12,9 km/h (3 Bft) 100,00 %
03.10.2023 17:12 15,6 C 15,0 C 11,1 C 90 % 1019,6 hPa 0,0 l/m 0 min 0 min 121 W/m 22,5 km/h (4 Bft) 100,00 %
03.10.2023 17:14 15,6 C 15,6 C 11,7 C 90 % 1019,6 hPa 0,0 l/m 2 min 0 min 267 W/m 32,2 km/h (5 Bft) 100,00 %
03.10.2023 17:16 15,6 C 15,6 C 11,7 C 90 % 1019,6 hPa 0,0 l/m 2 min 0 min 274 W/m 22,5 km/h (4 Bft) 97,87 %
03.10.2023 17:18 15,6 C 15,6 C 11,7 C 90 % 1019,7 hPa 0,0 l/m 2 min 0 min 270 W/m 16,1 km/h (3 Bft) 97,87 %
03.10.2023 17:20 15,6 C 15,6 C 11,7 C 90 % 1019,7 hPa 0,0 l/m 2 min 0 min 135 W/m 12,9 km/h (3 Bft) 100,00 %
03.10.2023 17:22 15,7 C 15,6 C 11,7 C 90 % 1019,8 hPa 0,0 l/m 2 min 0 min 223 W/m 35,4 km/h (5 Bft) 97,87 %
03.10.2023 17:24 15,7 C 15,6 C 11,7 C 90 % 1019,8 hPa 0,0 l/m 2 min 0 min 194 W/m 19,3 km/h (3 Bft) 97,92 %
03.10.2023 17:26 15,7 C 15,6 C 11,7 C 90 % 1019,8 hPa 0,0 l/m 2 min 0 min 249 W/m 12,9 km/h (3 Bft) 100,00 %
03.10.2023 17:28 15,7 C 15,6 C 11,7 C 90 % 1020,0 hPa 0,0 l/m 2 min 0 min 163 W/m 29,0 km/h (5 Bft) 97,87 %
03.10.2023 17:30 15,7 C 15,6 C 11,7 C 89 % 1020,0 hPa 0,0 l/m 2 min 0 min 197 W/m 19,3 km/h (3 Bft) 100,00 %
03.10.2023 17:32 15,7 C 15,6 C 11,7 C 89 % 1019,9 hPa 0,0 l/m 2 min 0 min 129 W/m 16,1 km/h (3 Bft) 100,00 %
03.10.2023 17:34 15,7 C 15,6 C 11,7 C 89 % 1020,0 hPa 0,0 l/m 0 min 0 min 89 W/m 25,7 km/h (4 Bft) 97,83 %
03.10.2023 17:36 15,6 C 15,0 C 11,7 C 88 % 1020,0 hPa 0,0 l/m 2 min 0 min 166 W/m 19,3 km/h (3 Bft) 100,00 %
03.10.2023 17:38 15,6 C 15,0 C 11,7 C 87 % 1020,2 hPa 0,0 l/m 0 min 0 min 103 W/m 25,7 km/h (4 Bft) 97,87 %
03.10.2023 17:40 15,5 C 15,0 C 11,7 C 86 % 1020,2 hPa 0,0 l/m 0 min 0 min 57 W/m 25,7 km/h (4 Bft) 97,87 %
03.10.2023 17:42 15,4 C 15,0 C 11,1 C 85 % 1020,3 hPa 0,0 l/m 2 min 0 min 134 W/m 29,0 km/h (5 Bft) 95,74 %
03.10.2023 17:44 15,3 C 15,0 C 11,1 C 84 % 1020,2 hPa 0,0 l/m 2 min 0 min 148 W/m 25,7 km/h (4 Bft) 95,74 %
03.10.2023 17:46 15,3 C 15,0 C 11,1 C 84 % 1020,3 hPa 0,0 l/m 2 min 0 min 148 W/m 16,1 km/h (3 Bft) 93,62 %
03.10.2023 17:48 15,3 C 15,0 C 11,1 C 84 % 1020,4 hPa 0,0 l/m 2 min 0 min 139 W/m 19,3 km/h (3 Bft) 95,65 %
03.10.2023 17:50 15,3 C 15,0 C 11,1 C 84 % 1020,4 hPa 0,0 l/m 2 min 0 min 107 W/m 19,3 km/h (3 Bft) 95,74 %
03.10.2023 17:52 15,3 C 15,0 C 11,1 C 84 % 1020,4 hPa 0,0 l/m 0 min 0 min 58 W/m 16,1 km/h (3 Bft) 95,74 %
03.10.2023 17:54 15,3 C 15,0 C 11,1 C 84 % 1020,5 hPa 0,0 l/m 0 min 0 min 50 W/m 12,9 km/h (3 Bft) 95,74 %
03.10.2023 17:56 15,3 C 15,0 C 11,1 C 84 % 1020,5 hPa 0,0 l/m 0 min 0 min 47 W/m 12,9 km/h (3 Bft) 95,92 %
03.10.2023 17:58 15,3 C 14,4 C 11,1 C 84 % 1020,6 hPa 0,0 l/m 0 min 0 min 45 W/m 22,5 km/h (4 Bft) 91,30 %
03.10.2023 18:00 15,3 C 14,4 C 11,1 C 84 % 1020,6 hPa 0,0 l/m 0 min 0 min 45 W/m 12,9 km/h (3 Bft) 95,74 %
03.10.2023 18:02 15,3 C 14,4 C 11,1 C 84 % 1020,5 hPa 0,0 l/m 0 min 0 min 44 W/m 6,4 km/h (2 Bft) 95,74 %
03.10.2023 18:04 15,3 C 15,0 C 11,1 C 84 % 1020,6 hPa 0,0 l/m 0 min 0 min 43 W/m 6,4 km/h (2 Bft) 95,56 %
03.10.2023 18:08 15,3 C 14,4 C 11,1 C 84 % 1020,7 hPa 0,0 l/m 0 min 0 min 42 W/m 16,1 km/h (3 Bft) 94,51 %
03.10.2023 18:10 15,3 C 14,4 C 11,1 C 84 % 1020,7 hPa 0,0 l/m 0 min 0 min 41 W/m 6,4 km/h (2 Bft) 95,74 %
03.10.2023 18:12 15,2 C 14,4 C 11,1 C 84 % 1020,8 hPa 0,0 l/m 0 min 0 min 40 W/m 9,7 km/h (2 Bft) 89,36 %
03.10.2023 18:16 15,2 C 14,4 C 11,1 C 84 % 1020,7 hPa 0,0 l/m 0 min 0 min 39 W/m 9,7 km/h (2 Bft) 94,62 %
03.10.2023 18:18 15,2 C 14,4 C 11,1 C 84 % 1020,8 hPa 0,0 l/m 0 min 0 min 39 W/m 9,7 km/h (2 Bft) 91,49 %
03.10.2023 18:20 15,3 C 14,4 C 11,1 C 85 % 1020,8 hPa 0,0 l/m 0 min 0 min 37 W/m 9,7 km/h (2 Bft) 93,62 %
03.10.2023 18:22 15,2 C 14,4 C 11,1 C 85 % 1020,8 hPa 0,0 l/m 0 min 0 min 35 W/m 9,7 km/h (2 Bft) 93,62 %
03.10.2023 18:24 15,2 C 14,4 C 11,1 C 85 % 1020,9 hPa 0,0 l/m 0 min 0 min 34 W/m 9,7 km/h (2 Bft) 95,74 %
03.10.2023 18:26 15,2 C 14,4 C 11,1 C 85 % 1021,0 hPa 0,0 l/m 0 min 0 min 33 W/m 9,7 km/h (2 Bft) 95,74 %
03.10.2023 18:28 15,2 C 14,4 C 11,1 C 84 % 1021,0 hPa 0,0 l/m 0 min 0 min 32 W/m 12,9 km/h (3 Bft) 97,83 %
03.10.2023 18:30 15,2 C 14,4 C 11,1 C 84 % 1021,1 hPa 0,0 l/m 0 min 0 min 32 W/m 6,4 km/h (2 Bft) 97,87 %
03.10.2023 18:32 15,2 C 14,4 C 11,1 C 85 % 1021,2 hPa 0,0 l/m 0 min 0 min 30 W/m 9,7 km/h (2 Bft) 93,62 %
03.10.2023 18:34 15,2 C 14,4 C 11,1 C 85 % 1021,2 hPa 0,0 l/m 0 min 0 min 28 W/m 6,4 km/h (2 Bft) 95,74 %
03.10.2023 18:36 15,2 C 14,4 C 11,1 C 85 % 1021,2 hPa 0,0 l/m 0 min 0 min 27 W/m 9,7 km/h (2 Bft) 95,74 %
03.10.2023 18:38 15,2 C 14,4 C 11,1 C 85 % 1021,3 hPa 0,0 l/m 0 min 0 min 26 W/m 6,4 km/h (2 Bft) 95,74 %
03.10.2023 18:40 15,2 C 14,4 C 11,1 C 85 % 1021,3 hPa 0,0 l/m 0 min 0 min 25 W/m 12,9 km/h (3 Bft) 97,87 %
03.10.2023 18:42 15,2 C 14,4 C 11,1 C 85 % 1021,4 hPa 0,0 l/m 0 min 0 min 24 W/m 6,4 km/h (2 Bft) 97,83 %
03.10.2023 18:44 15,2 C 14,4 C 11,1 C 85 % 1021,4 hPa 0,0 l/m 0 min 0 min 22 W/m 9,7 km/h (2 Bft) 97,87 %
03.10.2023 18:46 15,2 C 14,4 C 11,1 C 86 % 1021,4 hPa 0,0 l/m 0 min 0 min 20 W/m 9,7 km/h (2 Bft) 95,74 %
03.10.2023 18:48 15,1 C 14,4 C 11,1 C 86 % 1021,5 hPa 0,0 l/m 0 min 0 min 19 W/m 3,2 km/h (1 Bft) 97,87 %
03.10.2023 18:50 15,1 C 14,4 C 11,1 C 86 % 1021,5 hPa 0,0 l/m 0 min 0 min 17 W/m 6,4 km/h (2 Bft) 100,00 %
03.10.2023 18:52 15,1 C 14,4 C 11,1 C 86 % 1021,5 hPa 0,0 l/m 0 min 0 min 16 W/m 6,4 km/h (2 Bft) 100,00 %
03.10.2023 18:54 15,1 C 14,4 C 11,1 C 86 % 1021,6 hPa 0,0 l/m 0 min 0 min 14 W/m 6,4 km/h (2 Bft) 97,87 %
03.10.2023 18:56 15,1 C 14,4 C 11,1 C 86 % 1021,7 hPa 0,0 l/m 0 min 0 min 12 W/m 12,9 km/h (3 Bft) 100,00 %
03.10.2023 18:58 15,1 C 14,4 C 11,1 C 86 % 1021,7 hPa 0,0 l/m 0 min 0 min 11 W/m 12,9 km/h (3 Bft) 100,00 %
03.10.2023 19:00 15,0 C 14,4 C 11,1 C 85 % 1021,8 hPa 0,0 l/m 0 min 0 min 10 W/m 9,7 km/h (2 Bft) 100,00 %
03.10.2023 19:02 15,0 C 14,4 C 11,1 C 85 % 1021,8 hPa 0,0 l/m 0 min 0 min 9 W/m 6,4 km/h (2 Bft) 100,00 %
03.10.2023 19:04 15,0 C 14,4 C 11,1 C 85 % 1021,9 hPa 0,0 l/m 0 min 0 min 8 W/m 12,9 km/h (3 Bft) 100,00 %
03.10.2023 19:08 14,9 C 13,9 C 11,1 C 85 % 1022,0 hPa 0,0 l/m 0 min 0 min 6 W/m 12,9 km/h (3 Bft) 100,00 %
03.10.2023 19:10 14,9 C 13,9 C 11,1 C 85 % 1022,1 hPa 0,0 l/m 0 min 0 min 4 W/m 6,4 km/h (2 Bft) 100,00 %
03.10.2023 19:12 14,9 C 13,9 C 11,1 C 85 % 1022,1 hPa 0,0 l/m 0 min 0 min 0 W/m 12,9 km/h (3 Bft) 100,00 %
03.10.2023 19:14 14,9 C 13,9 C 10,6 C 85 % 1022,2 hPa 0,0 l/m 0 min 0 min 0 W/m 6,4 km/h (2 Bft) 100,00 %
03.10.2023 19:16 14,8 C 13,9 C 10,6 C 85 % 1022,2 hPa 0,0 l/m 0 min 0 min 0 W/m 3,2 km/h (1 Bft) 97,87 %
03.10.2023 19:18 14,8 C 13,9 C 10,6 C 86 % 1022,1 hPa 0,0 l/m 0 min 0 min 0 W/m 6,4 km/h (2 Bft) 100,00 %
03.10.2023 19:20 14,8 C 13,9 C 10,6 C 86 % 1022,2 hPa 0,0 l/m 0 min 0 min 0 W/m 12,9 km/h (3 Bft) 100,00 %
03.10.2023 19:22 14,8 C 13,9 C 10,6 C 86 % 1022,3 hPa 0,0 l/m 0 min 0 min 0 W/m 3,2 km/h (1 Bft) 100,00 %
03.10.2023 19:24 14,8 C 13,9 C 10,6 C 86 % 1022,4 hPa 0,0 l/m 0 min 0 min 0 W/m 12,9 km/h (3 Bft) 100,00 %
03.10.2023 19:26 14,7 C 13,9 C 10,6 C 86 % 1022,5 hPa 0,0 l/m 0 min 0 min 0 W/m 6,4 km/h (2 Bft) 100,00 %
03.10.2023 19:28 14,7 C 13,9 C 10,6 C 86 % 1022,6 hPa 0,0 l/m 0 min 0 min 0 W/m 16,1 km/h (3 Bft) 100,00 %
03.10.2023 19:30 14,7 C 13,9 C 10,6 C 86 % 1022,6 hPa 0,0 l/m 0 min 0 min 0 W/m 9,7 km/h (2 Bft) 100,00 %
03.10.2023 19:32 14,7 C 13,9 C 10,6 C 86 % 1022,6 hPa 0,0 l/m 0 min 0 min 0 W/m 3,2 km/h (1 Bft) 100,00 %
03.10.2023 19:34 14,6 C 13,9 C 10,6 C 86 % 1022,7 hPa 0,0 l/m 0 min 0 min 0 W/m 9,7 km/h (2 Bft) 100,00 %
03.10.2023 19:36 14,6 C 13,9 C 10,6 C 86 % 1022,7 hPa 0,0 l/m 0 min 0 min 0 W/m 3,2 km/h (1 Bft) 100,00 %
03.10.2023 19:38 14,6 C 13,9 C 10,6 C 86 % 1022,7 hPa 0,0 l/m 0 min 0 min 0 W/m 9,7 km/h (2 Bft) 100,00 %
03.10.2023 19:40 14,6 C 13,9 C 10,6 C 86 % 1022,8 hPa 0,0 l/m 0 min 0 min 0 W/m 22,5 km/h (4 Bft) 100,00 %
03.10.2023 19:42 14,5 C 13,9 C 10,6 C 86 % 1022,7 hPa 0,0 l/m 0 min 0 min 0 W/m 6,4 km/h (2 Bft) 97,87 %
03.10.2023 19:44 14,5 C 13,9 C 10,6 C 86 % 1022,8 hPa 0,0 l/m 0 min 0 min 0 W/m 6,4 km/h (2 Bft) 97,87 %
03.10.2023 19:46 14,4 C 13,9 C 10,6 C 86 % 1022,8 hPa 0,0 l/m 0 min 0 min 0 W/m 12,9 km/h (3 Bft) 100,00 %
03.10.2023 19:48 14,4 C 13,9 C 10,6 C 86 % 1022,8 hPa 0,0 l/m 0 min 0 min 0 W/m 6,4 km/h (2 Bft) 100,00 %
03.10.2023 19:50 14,4 C 13,3 C 10,6 C 86 % 1022,9 hPa 0,0 l/m 0 min 0 min 0 W/m 6,4 km/h (2 Bft) 97,87 %
03.10.2023 19:52 14,3 C 13,3 C 10,6 C 86 % 1022,9 hPa 0,0 l/m 0 min 0 min 0 W/m 6,4 km/h (2 Bft) 100,00 %
03.10.2023 19:54 14,3 C 13,3 C 10,6 C 86 % 1023,0 hPa 0,0 l/m 0 min 0 min 0 W/m 3,2 km/h (1 Bft) 97,87 %
03.10.2023 19:56 14,3 C 13,3 C 10,6 C 86 % 1022,9 hPa 0,0 l/m 0 min 0 min 0 W/m 6,4 km/h (2 Bft) 96,00 %
03.10.2023 19:58 14,3 C 13,3 C 10,0 C 86 % 1023,0 hPa 0,0 l/m 0 min 0 min 0 W/m 3,2 km/h (1 Bft) 100,00 %
03.10.2023 20:00 14,3 C 13,3 C 10,0 C 86 % 1022,9 hPa 0,0 l/m 0 min 0 min 0 W/m 3,2 km/h (1 Bft) 100,00 %
03.10.2023 20:02 14,3 C 13,3 C 10,0 C 86 % 1022,9 hPa 0,0 l/m 0 min 0 min 0 W/m 3,2 km/h (1 Bft) 100,00 %
03.10.2023 20:04 14,3 C 13,3 C 10,0 C 86 % 1022,9 hPa 0,0 l/m 0 min 0 min 0 W/m 3,2 km/h (1 Bft) 95,35 %
03.10.2023 20:06 14,3 C 12,8 C 10,0 C 86 % 1023,0 hPa 0,0 l/m 0 min 0 min 0 W/m 3,2 km/h (1 Bft) 97,87 %
03.10.2023 20:08 14,3 C 12,8 C 10,0 C 86 % 1023,0 hPa 0,0 l/m 0 min 0 min 0 W/m 3,2 km/h (1 Bft) 97,87 %
03.10.2023 20:10 14,2 C 12,8 C 10,0 C 86 % 1023,0 hPa 0,0 l/m 0 min 0 min 0 W/m 3,2 km/h (1 Bft) 93,62 %
03.10.2023 20:12 14,1 C 12,8 C 10,0 C 86 % 1023,1 hPa 0,0 l/m 0 min 0 min 0 W/m 16,1 km/h (3 Bft) 95,65 %
03.10.2023 20:14 14,1 C 12,8 C 10,0 C 86 % 1023,1 hPa 0,0 l/m 0 min 0 min 0 W/m 6,4 km/h (2 Bft) 93,62 %
03.10.2023 20:16 14,1 C 13,3 C 10,0 C 86 % 1023,1 hPa 0,0 l/m 0 min 0 min 0 W/m 3,2 km/h (1 Bft) 95,74 %
03.10.2023 20:18 14,0 C 13,3 C 10,0 C 86 % 1023,2 hPa 0,0 l/m 0 min 0 min 0 W/m 3,2 km/h (1 Bft) 93,62 %
03.10.2023 20:20 14,0 C 13,3 C 10,0 C 86 % 1023,2 hPa 0,0 l/m 0 min 0 min 0 W/m 6,4 km/h (2 Bft) 95,74 %
03.10.2023 20:22 13,9 C 12,8 C 10,0 C 86 % 1023,2 hPa 0,0 l/m 0 min 0 min 0 W/m 3,2 km/h (1 Bft) 95,74 %
03.10.2023 20:24 13,9 C 12,8 C 10,0 C 86 % 1023,2 hPa 0,0 l/m 0 min 0 min 0 W/m 3,2 km/h (1 Bft) 51,06 %
03.10.2023 20:26 13,9 C 12,8 C 10,0 C 86 % 1023,2 hPa 0,0 l/m 0 min 0 min 0 W/m 9,7 km/h (2 Bft) 95,35 %
03.10.2023 20:28 13,9 C 12,8 C 10,0 C 86 % 1023,2 hPa 0,0 l/m 0 min 0 min 0 W/m 3,2 km/h (1 Bft) 95,65 %
03.10.2023 20:30 13,9 C 12,8 C 9,4 C 86 % 1023,2 hPa 0,0 l/m 0 min 0 min 0 W/m 3,2 km/h (1 Bft) 95,74 %
03.10.2023 20:32 13,8 C 12,8 C 9,4 C 86 % 1023,2 hPa 0,0 l/m 0 min 0 min 0 W/m 6,4 km/h (2 Bft) 93,62 %
03.10.2023 20:34 13,8 C 12,8 C 9,4 C 86 % 1023,3 hPa 0,0 l/m 0 min 0 min 0 W/m 3,2 km/h (1 Bft) 93,62 %
03.10.2023 20:36 13,8 C 12,8 C 9,4 C 86 % 1023,3 hPa 0,0 l/m 0 min 0 min 0 W/m 3,2 km/h (1 Bft) 93,62 %
03.10.2023 20:38 13,8 C 12,8 C 9,4 C 86 % 1023,3 hPa 0,0 l/m 0 min 0 min 0 W/m 6,4 km/h (2 Bft) 95,74 %
03.10.2023 20:40 13,7 C 12,8 C 9,4 C 86 % 1023,3 hPa 0,0 l/m 0 min 0 min 0 W/m 3,2 km/h (1 Bft) 97,87 %
03.10.2023 20:42 13,7 C 12,8 C 9,4 C 86 % 1023,4 hPa 0,0 l/m 0 min 0 min 0 W/m 6,4 km/h (2 Bft) 93,48 %
03.10.2023 20:44 13,7 C 12,8 C 9,4 C 86 % 1023,4 hPa 0,0 l/m 0 min 0 min 0 W/m 6,4 km/h (2 Bft) 95,74 %
03.10.2023 20:46 13,7 C 12,8 C 9,4 C 86 % 1023,4 hPa 0,0 l/m 0 min 0 min 0 W/m 3,2 km/h (1 Bft) 95,74 %
03.10.2023 20:48 13,6 C 12,8 C 9,4 C 86 % 1023,6 hPa 0,0 l/m 0 min 0 min 0 W/m 9,7 km/h (2 Bft) 97,87 %
03.10.2023 20:50 13,6 C 12,8 C 9,4 C 86 % 1023,6 hPa 0,0 l/m 0 min 0 min 0 W/m 6,4 km/h (2 Bft) 97,87 %
03.10.2023 20:52 13,6 C 12,8 C 9,4 C 86 % 1023,7 hPa 0,0 l/m 0 min 0 min 0 W/m 12,9 km/h (3 Bft) 95,74 %
03.10.2023 20:54 13,6 C 12,8 C 9,4 C 86 % 1023,7 hPa 0,0 l/m 0 min 0 min 0 W/m 3,2 km/h (1 Bft) 95,74 %
03.10.2023 20:56 13,6 C 12,8 C 9,4 C 86 % 1023,7 hPa 0,0 l/m 0 min 0 min 0 W/m 3,2 km/h (1 Bft) 98,04 %
03.10.2023 20:58 13,6 C 12,8 C 9,4 C 87 % 1023,7 hPa 0,0 l/m 0 min 0 min 0 W/m 6,4 km/h (2 Bft) 97,67 %
03.10.2023 21:00 13,6 C 12,8 C 9,4 C 87 % 1023,7 hPa 0,0 l/m 0 min 0 min 0 W/m 3,2 km/h (1 Bft) 97,83 %
03.10.2023 21:02 13,5 C 12,8 C 9,4 C 87 % 1023,7 hPa 0,0 l/m 0 min 0 min 0 W/m 6,4 km/h (2 Bft) 97,87 %
03.10.2023 21:04 13,5 C 12,8 C 9,4 C 87 % 1023,7 hPa 0,0 l/m 0 min 0 min 0 W/m 6,4 km/h (2 Bft) 98,04 %
03.10.2023 21:08 13,4 C 12,8 C 9,4 C 87 % 1023,7 hPa 0,0 l/m 0 min 0 min 0 W/m 6,4 km/h (2 Bft) 97,65 %
03.10.2023 21:09 13,4 C 12,8 C 9,4 C 87 % 1023,8 hPa 0,0 l/m 0 min 0 min 0 W/m 6,4 km/h (2 Bft) 95,83 %
03.10.2023 21:12 13,4 C 12,2 C 9,4 C 87 % 1023,9 hPa 0,0 l/m 0 min 0 min 0 W/m 3,2 km/h (1 Bft) 95,71 %
03.10.2023 21:14 13,4 C 12,2 C 9,4 C 87 % 1023,8 hPa 0,0 l/m 0 min 0 min 0 W/m 12,9 km/h (3 Bft) 97,87 %
03.10.2023 21:16 13,4 C 12,2 C 9,4 C 87 % 1023,9 hPa 0,0 l/m 0 min 0 min 0 W/m 6,4 km/h (2 Bft) 97,87 %
03.10.2023 21:18 13,4 C 12,2 C 9,4 C 87 % 1023,9 hPa 0,0 l/m 0 min 0 min 0 W/m 3,2 km/h (1 Bft) 95,74 %
03.10.2023 21:20 13,4 C 12,2 C 9,4 C 87 % 1024,0 hPa 0,0 l/m 0 min 0 min 0 W/m 6,4 km/h (2 Bft) 97,83 %
03.10.2023 21:22 13,3 C 12,2 C 9,4 C 87 % 1024,0 hPa 0,0 l/m 0 min 0 min 0 W/m 12,9 km/h (3 Bft) 95,74 %
03.10.2023 21:24 13,3 C 12,8 C 9,4 C 87 % 1024,0 hPa 0,0 l/m 0 min 0 min 0 W/m 3,2 km/h (1 Bft) 95,74 %
03.10.2023 21:26 13,3 C 12,8 C 9,4 C 87 % 1024,0 hPa 0,0 l/m 0 min 0 min 0 W/m 6,4 km/h (2 Bft) 97,87 %
03.10.2023 21:28 13,3 C 12,8 C 9,4 C 87 % 1024,0 hPa 0,0 l/m 0 min 0 min 0 W/m 6,4 km/h (2 Bft) 95,74 %
03.10.2023 21:30 13,3 C 12,8 C 9,4 C 87 % 1024,1 hPa 0,0 l/m 0 min 0 min 0 W/m 6,4 km/h (2 Bft) 95,74 %
03.10.2023 21:32 13,3 C 12,8 C 9,4 C 87 % 1024,1 hPa 0,0 l/m 0 min 0 min 0 W/m 6,4 km/h (2 Bft) 100,00 %
03.10.2023 21:34 13,3 C 12,8 C 9,4 C 87 % 1024,1 hPa 0,0 l/m 0 min 0 min 0 W/m 16,1 km/h (3 Bft) 97,83 %
03.10.2023 21:36 13,3 C 12,8 C 9,4 C 86 % 1024,2 hPa 0,0 l/m 0 min 0 min 0 W/m 6,4 km/h (2 Bft) 97,87 %
03.10.2023 21:38 13,3 C 12,8 C 9,4 C 86 % 1024,2 hPa 0,0 l/m 0 min 0 min 0 W/m 6,4 km/h (2 Bft) 100,00 %
03.10.2023 21:40 13,3 C 12,8 C 9,4 C 86 % 1024,3 hPa 0,0 l/m 0 min 0 min 0 W/m 6,4 km/h (2 Bft) 100,00 %
03.10.2023 21:42 13,3 C 12,8 C 9,4 C 86 % 1024,3 hPa 0,0 l/m 0 min 0 min 0 W/m 3,2 km/h (1 Bft) 100,00 %
03.10.2023 21:44 13,3 C 12,8 C 9,4 C 86 % 1024,3 hPa 0,0 l/m 0 min 0 min 0 W/m 9,7 km/h (2 Bft) 97,87 %
03.10.2023 21:46 13,3 C 12,8 C 9,4 C 86 % 1024,4 hPa 0,0 l/m 0 min 0 min 0 W/m 3,2 km/h (1 Bft) 100,00 %
03.10.2023 21:48 13,3 C 12,8 C 9,4 C 86 % 1024,4 hPa 0,0 l/m 0 min 0 min 0 W/m 6,4 km/h (2 Bft) 97,83 %
03.10.2023 21:50 13,3 C 12,8 C 9,4 C 86 % 1024,4 hPa 0,0 l/m 0 min 0 min 0 W/m 9,7 km/h (2 Bft) 97,83 %
03.10.2023 21:52 13,3 C 12,8 C 9,4 C 86 % 1024,4 hPa 0,0 l/m 0 min 0 min 0 W/m 6,4 km/h (2 Bft) 93,62 %
03.10.2023 21:54 13,3 C 12,8 C 9,4 C 86 % 1024,5 hPa 0,0 l/m 0 min 0 min 0 W/m 3,2 km/h (1 Bft) 98,18 %
03.10.2023 21:56 13,4 C 12,8 C 9,4 C 86 % 1024,5 hPa 0,0 l/m 0 min 0 min 0 W/m 6,4 km/h (2 Bft) 97,87 %
03.10.2023 21:58 13,4 C 12,8 C 9,4 C 86 % 1024,5 hPa 0,0 l/m 0 min 0 min 0 W/m 6,4 km/h (2 Bft) 97,62 %
03.10.2023 22:00 13,3 C 12,8 C 9,4 C 86 % 1024,5 hPa 0,0 l/m 0 min 0 min 0 W/m 6,4 km/h (2 Bft) 97,87 %
03.10.2023 22:02 13,3 C 12,8 C 9,4 C 86 % 1024,5 hPa 0,0 l/m 0 min 0 min 0 W/m 6,4 km/h (2 Bft) 95,74 %
03.10.2023 22:04 13,4 C 12,8 C 9,4 C 86 % 1024,4 hPa 0,0 l/m 0 min 0 min 0 W/m 3,2 km/h (1 Bft) 98,04 %
03.10.2023 22:06 13,3 C 12,8 C 9,4 C 86 % 1024,5 hPa 0,0 l/m 0 min 0 min 0 W/m 6,4 km/h (2 Bft) 95,74 %
03.10.2023 22:08 13,3 C 12,8 C 9,4 C 86 % 1024,5 hPa 0,0 l/m 0 min 0 min 0 W/m 3,2 km/h (1 Bft) 97,87 %
03.10.2023 22:10 13,3 C 12,8 C 9,4 C 86 % 1024,6 hPa 0,0 l/m 0 min 0 min 0 W/m 6,4 km/h (2 Bft) 97,87 %
03.10.2023 22:12 13,3 C 12,8 C 9,4 C 86 % 1024,6 hPa 0,0 l/m 0 min 0 min 0 W/m 12,9 km/h (3 Bft) 95,74 %
03.10.2023 22:14 13,3 C 12,8 C 9,4 C 86 % 1024,7 hPa 0,0 l/m 0 min 0 min 0 W/m 6,4 km/h (2 Bft) 97,14 %
03.10.2023 22:16 13,3 C 12,8 C 9,4 C 86 % 1024,7 hPa 0,0 l/m 0 min 0 min 0 W/m 12,9 km/h (3 Bft) 98,04 %
03.10.2023 22:18 13,3 C 12,8 C 9,4 C 86 % 1024,7 hPa 0,0 l/m 0 min 0 min 0 W/m 12,9 km/h (3 Bft) 97,87 %
03.10.2023 22:20 13,4 C 12,8 C 9,4 C 85 % 1024,7 hPa 0,0 l/m 0 min 0 min 0 W/m 12,9 km/h (3 Bft) 100,00 %
03.10.2023 22:22 13,4 C 12,8 C 9,4 C 85 % 1024,7 hPa 0,0 l/m 0 min 0 min 0 W/m 12,9 km/h (3 Bft) 97,83 %
03.10.2023 22:24 13,4 C 12,8 C 9,4 C 85 % 1024,7 hPa 0,0 l/m 0 min 0 min 0 W/m 9,7 km/h (2 Bft) 100,00 %
03.10.2023 22:26 13,4 C 12,8 C 9,4 C 85 % 1024,8 hPa 0,0 l/m 0 min 0 min 0 W/m 16,1 km/h (3 Bft) 97,87 %
03.10.2023 22:28 13,4 C 12,8 C 9,4 C 85 % 1024,8 hPa 0,0 l/m 0 min 0 min 0 W/m 12,9 km/h (3 Bft) 95,74 %
03.10.2023 22:30 13,5 C 12,8 C 9,4 C 85 % 1024,8 hPa 0,0 l/m 0 min 0 min 0 W/m 16,1 km/h (3 Bft) 97,87 %
03.10.2023 22:32 13,5 C 12,8 C 9,4 C 85 % 1024,8 hPa 0,0 l/m 0 min 0 min 0 W/m 6,4 km/h (2 Bft) 97,87 %
03.10.2023 22:34 13,5 C 12,8 C 9,4 C 85 % 1024,8 hPa 0,0 l/m 0 min 0 min 0 W/m 12,9 km/h (3 Bft) 97,87 %
03.10.2023 22:36 13,5 C 12,8 C 9,4 C 85 % 1024,8 hPa 0,0 l/m 0 min 0 min 0 W/m 6,4 km/h (2 Bft) 95,65 %
03.10.2023 22:38 13,5 C 12,8 C 9,4 C 85 % 1024,8 hPa 0,0 l/m 0 min 0 min 0 W/m 6,4 km/h (2 Bft) 97,87 %
03.10.2023 22:40 13,5 C 12,8 C 9,4 C 84 % 1024,9 hPa 0,0 l/m 0 min 0 min 0 W/m 12,9 km/h (3 Bft) 94,44 %
03.10.2023 22:42 13,5 C 12,8 C 9,4 C 84 % 1024,9 hPa 0,0 l/m 0 min 0 min 0 W/m 6,4 km/h (2 Bft) 95,74 %
03.10.2023 22:44 13,5 C 12,8 C 9,4 C 84 % 1024,9 hPa 0,0 l/m 0 min 0 min 0 W/m 12,9 km/h (3 Bft) 97,87 %
03.10.2023 22:46 13,5 C 12,8 C 9,4 C 84 % 1024,9 hPa 0,0 l/m 0 min 0 min 0 W/m 6,4 km/h (2 Bft) 97,87 %
03.10.2023 22:48 13,5 C 12,8 C 9,4 C 84 % 1024,9 hPa 0,0 l/m 0 min 0 min 0 W/m 9,7 km/h (2 Bft) 95,74 %
03.10.2023 22:50 13,5 C 12,8 C 9,4 C 84 % 1024,9 hPa 0,0 l/m 0 min 0 min 0 W/m 6,4 km/h (2 Bft) 97,83 %
03.10.2023 22:52 13,4 C 12,8 C 9,4 C 84 % 1024,9 hPa 0,0 l/m 0 min 0 min 0 W/m 3,2 km/h (1 Bft) 97,87 %
03.10.2023 22:54 13,4 C 12,8 C 9,4 C 84 % 1024,9 hPa 0,0 l/m 0 min 0 min 0 W/m 6,4 km/h (2 Bft) 91,49 %
03.10.2023 22:56 13,4 C 12,8 C 9,4 C 84 % 1024,9 hPa 0,0 l/m 0 min 0 min 0 W/m 3,2 km/h (1 Bft) 61,70 %
03.10.2023 22:58 13,4 C 12,8 C 9,4 C 84 % 1024,9 hPa 0,0 l/m 0 min 0 min 0 W/m 6,4 km/h (2 Bft) 97,67 %
03.10.2023 23:00 13,4 C 12,8 C 9,4 C 85 % 1024,9 hPa 0,0 l/m 0 min 0 min 0 W/m 3,2 km/h (1 Bft) 97,87 %
03.10.2023 23:02 13,4 C 12,8 C 9,4 C 85 % 1024,9 hPa 0,0 l/m 0 min 0 min 0 W/m 3,2 km/h (1 Bft) 95,74 %
03.10.2023 23:04 13,4 C 12,2 C 9,4 C 85 % 1025,0 hPa 0,0 l/m 0 min 0 min 0 W/m 9,7 km/h (2 Bft) 98,00 %
03.10.2023 23:08 13,4 C 12,2 C 9,4 C 85 % 1025,0 hPa 0,0 l/m 0 min 0 min 0 W/m 12,9 km/h (3 Bft) 100,00 %
03.10.2023 23:09 13,4 C 12,2 C 9,4 C 85 % 1025,0 hPa 0,0 l/m 0 min 0 min 0 W/m 3,2 km/h (1 Bft) 95,83 %
03.10.2023 23:12 13,3 C 12,2 C 9,4 C 85 % 1024,9 hPa 0,0 l/m 0 min 0 min 0 W/m 3,2 km/h (1 Bft) 98,57 %
03.10.2023 23:14 13,3 C 12,2 C 9,4 C 85 % 1025,0 hPa 0,0 l/m 0 min 0 min 0 W/m 3,2 km/h (1 Bft) 97,87 %
03.10.2023 23:16 13,3 C 12,2 C 9,4 C 85 % 1025,0 hPa 0,0 l/m 0 min 0 min 0 W/m 6,4 km/h (2 Bft) 95,65 %
03.10.2023 23:18 13,3 C 12,2 C 9,4 C 85 % 1025,0 hPa 0,0 l/m 0 min 0 min 0 W/m 6,4 km/h (2 Bft) 100,00 %
03.10.2023 23:20 13,3 C 12,2 C 9,4 C 85 % 1025,1 hPa 0,0 l/m 0 min 0 min 0 W/m 3,2 km/h (1 Bft) 100,00 %
03.10.2023 23:22 13,3 C 12,2 C 9,4 C 85 % 1025,1 hPa 0,0 l/m 0 min 0 min 0 W/m 6,4 km/h (2 Bft) 100,00 %
03.10.2023 23:24 13,2 C 12,2 C 9,4 C 85 % 1025,2 hPa 0,0 l/m 0 min 0 min 0 W/m 6,4 km/h (2 Bft) 97,87 %
03.10.2023 23:26 13,3 C 12,2 C 9,4 C 85 % 1025,1 hPa 0,0 l/m 0 min 0 min 0 W/m 3,2 km/h (1 Bft) 100,00 %
03.10.2023 23:30 13,2 C 12,2 C 9,4 C 85 % 1025,1 hPa 0,0 l/m 0 min 0 min 0 W/m 3,2 km/h (1 Bft) 98,96 %
03.10.2023 23:32 13,2 C 12,2 C 9,4 C 85 % 1025,2 hPa 0,0 l/m 0 min 0 min 0 W/m 6,4 km/h (2 Bft) 97,87 %
03.10.2023 23:34 13,2 C 12,2 C 9,4 C 86 % 1025,2 hPa 0,0 l/m 0 min 0 min 0 W/m 3,2 km/h (1 Bft) 100,00 %
03.10.2023 23:36 13,2 C 12,2 C 9,4 C 86 % 1025,2 hPa 0,0 l/m 0 min 0 min 0 W/m 6,4 km/h (2 Bft) 97,87 %
03.10.2023 23:38 13,2 C 12,2 C 9,4 C 86 % 1025,2 hPa 0,0 l/m 0 min 0 min 0 W/m 9,7 km/h (2 Bft) 97,87 %
03.10.2023 23:40 13,2 C 12,2 C 9,4 C 86 % 1025,3 hPa 0,0 l/m 0 min 0 min 0 W/m 6,4 km/h (2 Bft) 97,87 %
03.10.2023 23:42 13,2 C 12,2 C 9,4 C 86 % 1025,3 hPa 0,0 l/m 0 min 0 min 0 W/m 6,4 km/h (2 Bft) 97,87 %
03.10.2023 23:45 13,2 C 12,2 C 9,4 C 86 % 1025,4 hPa 0,0 l/m 0 min 0 min 0 W/m 9,7 km/h (2 Bft) 99,12 %
03.10.2023 23:48 13,2 C 12,2 C 9,4 C 86 % 1025,3 hPa 0,0 l/m 0 min 0 min 0 W/m 3,2 km/h (1 Bft) 94,87 %
03.10.2023 23:50 13,2 C 12,2 C 9,4 C 86 % 1025,3 hPa 0,0 l/m 0 min 0 min 0 W/m 6,4 km/h (2 Bft) 95,74 %
03.10.2023 23:52 13,2 C 12,2 C 9,4 C 86 % 1025,3 hPa 0,0 l/m 0 min 0 min 0 W/m 6,4 km/h (2 Bft) 95,65 %
03.10.2023 23:54 13,2 C 12,2 C 9,4 C 86 % 1025,3 hPa 0,0 l/m 0 min 0 min 0 W/m 12,9 km/h (3 Bft) 95,74 %
03.10.2023 23:56 13,2 C 12,2 C 9,4 C 86 % 1025,3 hPa 0,0 l/m 0 min 0 min 0 W/m 6,4 km/h (2 Bft) 92,45 %
03.10.2023 23:58 13,2 C 12,2 C 9,4 C 86 % 1025,3 hPa 0,0 l/m 0 min 0 min 0 W/m 16,1 km/h (3 Bft) 95,00 %
_ Min-Zeit 23:24 21:12 20:30 06:54 05:22 - - - - 00:00 20:24
Minimum _ 13,2 C 12,2 C 9,4 C 81 % 1009,5 hPa - - - - 3,2 km/h (1 Bft) 51,06 %
_ Max-Zeit 07:00 06:42 06:46 12:36 23:45 12:08 17:06 12:08 15:56 11:08 00:00
Maximum _ 20,4 C 19,4 C 15,6 C 95 % 1025,4 hPa 1,2 l/m 5 min 4 min 557 W/m 38,6 km/h
O-SO (5 Bft)
100,00 %
Durchschnitt _ 17,2 C 16,4 C 12,7 C 86 % 1015,8 hPa #3,4 l/m #1:27 h #46 min. 106 W/m 13,6 km/h (3 Bft) 97,16 %
© 2023 W. Hausmann